Observation data for Truscott on 08/06/2020      Previous  Date       Current Mesonet Observations  Soil Data  Daily Summary Page  Observations in Plain Language
KTR1 060500Z 08009KT 27/20 A2994 RMK A01 T02650202  RH  068%=      5-min Rain = 0
KTR1 060501Z 08008KT 27/20 A2994 RMK A01 T02650202  RH  068%=      5-min Rain = 0
KTR1 060502Z 08008KT 27/20 A2994 RMK A01 T02650202  RH  068%=      5-min Rain = 0
KTR1 060503Z 09008KT 26/20 A2994 RMK A01 T02640202  RH  068%=      5-min Rain = 0
KTR1 060504Z 08008KT 26/20 A2994 RMK A01 T02640202  RH  069%=      5-min Rain = 0
KTR1 060505Z 09009KT 26/20 A2994 RMK A01 T02640202  RH  069%=      5-min Rain = 0
KTR1 060506Z 09007KT 26/20 A2994 RMK A01 T02640202  RH  069%=      5-min Rain = 0
KTR1 060507Z 08008KT 26/20 A2994 RMK A01 T02640202  RH  069%=      5-min Rain = 0
KTR1 060508Z 09009KT 26/20 A2994 RMK A01 T02640202  RH  069%=      5-min Rain = 0
KTR1 060509Z 08010KT 26/20 A2994 RMK A01 T02630203  RH  069%=      5-min Rain = 0
KTR1 060510Z 09009KT 26/20 A2994 RMK A01 T02630202  RH  069%=      5-min Rain = 0
KTR1 060511Z 08010KT 26/20 A2994 RMK A01 T02640203  RH  069%=      5-min Rain = 0
KTR1 060512Z 09010KT 26/20 A2994 RMK A01 T02640203  RH  069%=      5-min Rain = 0
KTR1 060513Z 09009KT 26/20 A2994 RMK A01 T02640203  RH  069%=      5-min Rain = 0
KTR1 060514Z 09008KT 26/20 A2994 RMK A01 T02640203  RH  069%=      5-min Rain = 0
KTR1 060515Z 09008KT 26/20 A2994 RMK A01 T02640203  RH  069%=      5-min Rain = 0
KTR1 060516Z 09007KT 26/20 A2994 RMK A01 T02630203  RH  069%=      5-min Rain = 0
KTR1 060517Z 09008KT 26/20 A2994 RMK A01 T02630203  RH  069%=      5-min Rain = 0
KTR1 060518Z 09007KT 26/20 A2994 RMK A01 T02630203  RH  070%=      5-min Rain = 0
KTR1 060519Z 09008KT 26/20 A2994 RMK A01 T02620203  RH  070%=      5-min Rain = 0
KTR1 060520Z 09008KT 26/20 A2994 RMK A01 T02620203  RH  070%=      5-min Rain = 0
KTR1 060521Z 09008KT 26/20 A2994 RMK A01 T02620203  RH  070%=      5-min Rain = 0
KTR1 060522Z 09008KT 26/20 A2994 RMK A01 T02620203  RH  070%=      5-min Rain = 0
KTR1 060523Z 09010KT 26/20 A2994 RMK A01 T02630203  RH  070%=      5-min Rain = 0
KTR1 060524Z 09008KT 26/20 A2994 RMK A01 T02630203  RH  070%=      5-min Rain = 0
KTR1 060525Z 09008KT 26/20 A2994 RMK A01 T02630203  RH  070%=      5-min Rain = 0
KTR1 060526Z 09007KT 26/20 A2994 RMK A01 T02630203  RH  070%=      5-min Rain = 0
KTR1 060527Z 08008KT 26/20 A2994 RMK A01 T02630203  RH  070%=      5-min Rain = 0
KTR1 060528Z 09008KT 26/20 A2994 RMK A01 T02620203  RH  070%=      5-min Rain = 0
KTR1 060529Z 09009KT 26/20 A2994 RMK A01 T02620203  RH  070%=      5-min Rain = 0
KTR1 060530Z 09009KT 26/20 A2994 RMK A01 T02620203  RH  070%=      5-min Rain = 0
KTR1 060531Z 09008KT 26/20 A2994 RMK A01 T02630203  RH  070%=      5-min Rain = 0
KTR1 060532Z 09010KT 26/20 A2994 RMK A01 T02630203  RH  070%=      5-min Rain = 0
KTR1 060533Z 09009KT 26/20 A2994 RMK A01 T02630203  RH  070%=      5-min Rain = 0
KTR1 060534Z 09008KT 26/20 A2994 RMK A01 T02640204  RH  069%=      5-min Rain = 0
KTR1 060535Z 09009KT 26/20 A2994 RMK A01 T02640204  RH  069%=      5-min Rain = 0
KTR1 060536Z 09010KT 26/20 A2994 RMK A01 T02640204  RH  069%=      5-min Rain = 0
KTR1 060537Z 09008KT 26/20 A2994 RMK A01 T02640204  RH  069%=      5-min Rain = 0
KTR1 060538Z 08008KT 27/20 A2994 RMK A01 T02650204  RH  069%=      5-min Rain = 0
KTR1 060539Z 09008KT 27/20 A2994 RMK A01 T02650204  RH  069%=      5-min Rain = 0
KTR1 060540Z 09008KT 26/20 A2994 RMK A01 T02640204  RH  069%=      5-min Rain = 0
KTR1 060541Z 09008KT 26/20 A2994 RMK A01 T02640204  RH  070%=      5-min Rain = 0
KTR1 060542Z 09010KT 26/20 A2994 RMK A01 T02640204  RH  070%=      5-min Rain = 0
KTR1 060543Z 10009KT 26/20 A2994 RMK A01 T02640204  RH  070%=      5-min Rain = 0
KTR1 060544Z 10010KT 26/20 A2994 RMK A01 T02640204  RH  070%=      5-min Rain = 0
KTR1 060545Z 09008KT 27/21 A2994 RMK A01 T02650205  RH  070%=      5-min Rain = 0
KTR1 060546Z 09010KT 27/21 A2994 RMK A01 T02650205  RH  070%=      5-min Rain = 0
KTR1 060547Z 10010KT 27/21 A2994 RMK A01 T02650205  RH  070%=      5-min Rain = 0
KTR1 060548Z 09010KT 27/21 A2994 RMK A01 T02650205  RH  069%=      5-min Rain = 0
KTR1 060549Z 10010KT 27/21 A2994 RMK A01 T02650205  RH  070%=      5-min Rain = 0
KTR1 060550Z 09010KT 27/21 A2994 RMK A01 T02660206  RH  070%=      5-min Rain = 0
KTR1 060551Z 09008KT 27/21 A2994 RMK A01 T02650205  RH  070%=      5-min Rain = 0
KTR1 060552Z 09009KT 27/21 A2994 RMK A01 T02650205  RH  069%=      5-min Rain = 0
KTR1 060553Z 09009KT 27/21 A2994 RMK A01 T02660206  RH  070%=      5-min Rain = 0
KTR1 060554Z 10008KT 27/21 A2994 RMK A01 T02650205  RH  070%=      5-min Rain = 0
KTR1 060555Z 10009KT 27/21 A2994 RMK A01 T02650205  RH  070%=      5-min Rain = 0
KTR1 060556Z 09010KT 27/21 A2994 RMK A01 T02650206  RH  070%=      5-min Rain = 0
KTR1 060557Z 10010KT 27/21 A2994 RMK A01 T02650205  RH  070%=      5-min Rain = 0
KTR1 060558Z 09008KT 27/21 A2994 RMK A01 T02650205  RH  070%=      5-min Rain = 0
KTR1 060559Z 10009KT 27/21 A2994 RMK A01 T02650206  RH  070%=      5-min Rain = 0
KTR1 060600Z 09011KT 27/21 A2994 RMK A01 T02650206  RH  070%=      5-min Rain = 0
KTR1 060601Z 11012KT 27/21 A2994 RMK A01 T02650206  RH  070%=      5-min Rain = 0
KTR1 060602Z 10011KT 27/21 A2994 RMK A01 T02650206  RH  070%=      5-min Rain = 0
KTR1 060603Z 10011KT 27/21 A2994 RMK A01 T02660206  RH  070%=      5-min Rain = 0
KTR1 060604Z 10012KT 27/21 A2994 RMK A01 T02660206  RH  070%=      5-min Rain = 0
KTR1 060605Z 10010KT 27/21 A2994 RMK A01 T02660207  RH  070%=      5-min Rain = 0
KTR1 060606Z 10009KT 27/21 A2994 RMK A01 T02660207  RH  070%=      5-min Rain = 0
KTR1 060607Z 10011KT 27/21 A2994 RMK A01 T02650206  RH  070%=      5-min Rain = 0
KTR1 060608Z 10014KT 27/21 A2994 RMK A01 T02650207  RH  070%=      5-min Rain = 0
KTR1 060609Z 11013KT 27/21 A2994 RMK A01 T02650207  RH  070%=      5-min Rain = 0
KTR1 060610Z 10012KT 27/21 A2994 RMK A01 T02650207  RH  070%=      5-min Rain = 0
KTR1 060611Z 10013KT 27/21 A2994 RMK A01 T02650207  RH  070%=      5-min Rain = 0
KTR1 060612Z 10014KT 27/21 A2994 RMK A01 T02650207  RH  070%=      5-min Rain = 0
KTR1 060613Z 10012KT 27/21 A2994 RMK A01 T02650207  RH  070%=      5-min Rain = 0
KTR1 060614Z 10011KT 27/21 A2994 RMK A01 T02650207  RH  070%=      5-min Rain = 0
KTR1 060615Z 10011KT 27/21 A2994 RMK A01 T02650207  RH  070%=      5-min Rain = 0
KTR1 060616Z 11010KT 27/21 A2994 RMK A01 T02650207  RH  071%=      5-min Rain = 0
KTR1 060617Z 11012KT 26/21 A2994 RMK A01 T02640207  RH  071%=      5-min Rain = 0
KTR1 060618Z 11012KT 26/21 A2994 RMK A01 T02640207  RH  071%=      5-min Rain = 0
KTR1 060619Z 10011KT 26/21 A2994 RMK A01 T02640208  RH  071%=      5-min Rain = 0
KTR1 060620Z 10012KT 26/21 A2994 RMK A01 T02640207  RH  071%=      5-min Rain = 0
KTR1 060621Z 10009KT 26/21 A2994 RMK A01 T02640208  RH  071%=      5-min Rain = 0
KTR1 060622Z 10010KT 26/21 A2994 RMK A01 T02640207  RH  071%=      5-min Rain = 0
KTR1 060623Z 10009KT 26/21 A2994 RMK A01 T02630207  RH  071%=      5-min Rain = 0
KTR1 060624Z 11013KT 26/21 A2994 RMK A01 T02630207  RH  071%=      5-min Rain = 0
KTR1 060625Z 11013KT 26/21 A2994 RMK A01 T02630207  RH  071%=      5-min Rain = 0
KTR1 060626Z 10011KT 26/21 A2994 RMK A01 T02630207  RH  071%=      5-min Rain = 0
KTR1 060627Z 11008KT 26/21 A2994 RMK A01 T02630207  RH  071%=      5-min Rain = 0
KTR1 060628Z 11009KT 26/21 A2994 RMK A01 T02630207  RH  071%=      5-min Rain = 0
KTR1 060629Z 11010KT 26/21 A2994 RMK A01 T02620207  RH  072%=      5-min Rain = 0
KTR1 060630Z 11010KT 26/21 A2994 RMK A01 T02630208  RH  072%=      5-min Rain = 0
KTR1 060631Z 11009KT 26/21 A2994 RMK A01 T02620207  RH  072%=      5-min Rain = 0
KTR1 060632Z 11010KT 26/21 A2994 RMK A01 T02620207  RH  072%=      5-min Rain = 0
KTR1 060633Z 10010KT 26/21 A2994 RMK A01 T02610207  RH  072%=      5-min Rain = 0
KTR1 060634Z 11012KT 26/21 A2994 RMK A01 T02620207  RH  072%=      5-min Rain = 0
KTR1 060635Z 10012KT 26/21 A2994 RMK A01 T02610207  RH  072%=      5-min Rain = 0
KTR1 060636Z 10010KT 26/21 A2994 RMK A01 T02610207  RH  072%=      5-min Rain = 0
KTR1 060637Z 10010KT 26/21 A2994 RMK A01 T02620207  RH  072%=      5-min Rain = 0
KTR1 060638Z 11010KT 26/21 A2994 RMK A01 T02610207  RH  072%=      5-min Rain = 0
KTR1 060639Z 10009KT 26/21 A2994 RMK A01 T02620208  RH  072%=      5-min Rain = 0
KTR1 060640Z 10010KT 26/21 A2994 RMK A01 T02610207  RH  072%=      5-min Rain = 0
KTR1 060641Z 10008KT 26/21 A2994 RMK A01 T02610207  RH  072%=      5-min Rain = 0
KTR1 060642Z 11009KT 26/21 A2994 RMK A01 T02610207  RH  072%=      5-min Rain = 0
KTR1 060643Z 11010KT 26/21 A2994 RMK A01 T02600207  RH  072%=      5-min Rain = 0
KTR1 060644Z 11010KT 26/21 A2994 RMK A01 T02600207  RH  073%=      5-min Rain = 0
KTR1 060645Z 10011KT 26/21 A2994 RMK A01 T02600208  RH  073%=      5-min Rain = 0
KTR1 060646Z 10010KT 26/21 A2994 RMK A01 T02600207  RH  073%=      5-min Rain = 0
KTR1 060647Z 10009KT 26/21 A2994 RMK A01 T02600207  RH  073%=      5-min Rain = 0
KTR1 060648Z 11011KT 26/21 A2994 RMK A01 T02600207  RH  073%=      5-min Rain = 0
KTR1 060649Z 10009KT 26/21 A2993 RMK A01 T02600208  RH  073%=      5-min Rain = 0
KTR1 060650Z 10011KT 26/21 A2993 RMK A01 T02600208  RH  073%=      5-min Rain = 0
KTR1 060651Z 11011KT 26/21 A2993 RMK A01 T02600208  RH  073%=      5-min Rain = 0
KTR1 060652Z 10010KT 26/21 A2993 RMK A01 T02600208  RH  073%=      5-min Rain = 0
KTR1 060653Z 11008KT 26/21 A2993 RMK A01 T02600208  RH  073%=      5-min Rain = 0
KTR1 060654Z 10008KT 26/21 A2993 RMK A01 T02590207  RH  073%=      5-min Rain = 0
KTR1 060655Z 11009KT 26/21 A2993 RMK A01 T02590207  RH  073%=      5-min Rain = 0
KTR1 060656Z 10011KT 26/21 A2993 RMK A01 T02590207  RH  073%=      5-min Rain = 0
KTR1 060657Z 10011KT 26/21 A2993 RMK A01 T02590208  RH  073%=      5-min Rain = 0
KTR1 060658Z 10010KT 26/21 A2993 RMK A01 T02590208  RH  073%=      5-min Rain = 0
KTR1 060659Z 10009KT 26/21 A2993 RMK A01 T02590208  RH  073%=      5-min Rain = 0
KTR1 060700Z 10011KT 26/21 A2993 RMK A01 T02600208  RH  073%=      5-min Rain = 0
KTR1 060701Z 10010KT 26/21 A2993 RMK A01 T02590208  RH  073%=      5-min Rain = 0
KTR1 060702Z 11010KT 26/21 A2993 RMK A01 T02590207  RH  073%=      5-min Rain = 0
KTR1 060703Z 10010KT 26/21 A2993 RMK A01 T02590207  RH  073%=      5-min Rain = 0
KTR1 060704Z 10011KT 26/21 A2993 RMK A01 T02580207  RH  073%=      5-min Rain = 0
KTR1 060705Z 10011KT 26/21 A2993 RMK A01 T02580208  RH  074%=      5-min Rain = 0
KTR1 060706Z 10008KT 26/21 A2993 RMK A01 T02580208  RH  074%=      5-min Rain = 0
KTR1 060707Z 11009KT 26/21 A2993 RMK A01 T02580207  RH  074%=      5-min Rain = 0
KTR1 060708Z 10009KT 26/21 A2993 RMK A01 T02570207  RH  074%=      5-min Rain = 0
KTR1 060709Z 10010KT 26/21 A2993 RMK A01 T02570207  RH  074%=      5-min Rain = 0
KTR1 060710Z 11012KT 26/21 A2993 RMK A01 T02570208  RH  074%=      5-min Rain = 0
KTR1 060711Z 10011KT 26/21 A2993 RMK A01 T02570207  RH  074%=      5-min Rain = 0
KTR1 060712Z 10011KT 26/21 A2993 RMK A01 T02570208  RH  074%=      5-min Rain = 0
KTR1 060713Z 10012KT 26/21 A2993 RMK A01 T02570207  RH  074%=      5-min Rain = 0
KTR1 060714Z 10011KT 26/21 A2993 RMK A01 T02570208  RH  074%=      5-min Rain = 0
KTR1 060715Z 10011KT 26/21 A2993 RMK A01 T02570207  RH  074%=      5-min Rain = 0
KTR1 060716Z 11009KT 26/21 A2993 RMK A01 T02570207  RH  074%=      5-min Rain = 0
KTR1 060717Z 12008KT 26/21 A2993 RMK A01 T02570207  RH  074%=      5-min Rain = 0
KTR1 060718Z 12009KT 26/21 A2993 RMK A01 T02570207  RH  074%=      5-min Rain = 0
KTR1 060719Z 12010KT 26/21 A2993 RMK A01 T02570207  RH  074%=      5-min Rain = 0
KTR1 060720Z 11010KT 26/21 A2993 RMK A01 T02570207  RH  074%=      5-min Rain = 0
KTR1 060721Z 11010KT 26/21 A2993 RMK A01 T02570208  RH  074%=      5-min Rain = 0
KTR1 060722Z 11010KT 26/21 A2993 RMK A01 T02570208  RH  074%=      5-min Rain = 0
KTR1 060723Z 11009KT 26/21 A2993 RMK A01 T02560207  RH  074%=      5-min Rain = 0
KTR1 060724Z 12009KT 26/21 A2993 RMK A01 T02560208  RH  074%=      5-min Rain = 0
KTR1 060725Z 11011KT 26/21 A2993 RMK A01 T02560208  RH  075%=      5-min Rain = 0
KTR1 060726Z 11010KT 26/21 A2993 RMK A01 T02560208  RH  075%=      5-min Rain = 0
KTR1 060727Z 10009KT 26/21 A2993 RMK A01 T02560208  RH  075%=      5-min Rain = 0
KTR1 060728Z 11010KT 26/21 A2993 RMK A01 T02560208  RH  075%=      5-min Rain = 0
KTR1 060729Z 11009KT 26/21 A2993 RMK A01 T02560208  RH  075%=      5-min Rain = 0
KTR1 060730Z 12010KT 26/21 A2993 RMK A01 T02560208  RH  075%=      5-min Rain = 0
KTR1 060731Z 11010KT 26/21 A2993 RMK A01 T02560208  RH  075%=      5-min Rain = 0
KTR1 060732Z 11009KT 26/21 A2993 RMK A01 T02560208  RH  075%=      5-min Rain = 0
KTR1 060733Z 11009KT 26/21 A2993 RMK A01 T02560208  RH  075%=      5-min Rain = 0
KTR1 060734Z 11010KT 26/21 A2993 RMK A01 T02560208  RH  075%=      5-min Rain = 0
KTR1 060735Z 11010KT 26/21 A2993 RMK A01 T02560208  RH  075%=      5-min Rain = 0
KTR1 060736Z 11009KT 26/21 A2993 RMK A01 T02560208  RH  075%=      5-min Rain = 0
KTR1 060737Z 11009KT 26/21 A2993 RMK A01 T02560208  RH  075%=      5-min Rain = 0
KTR1 060738Z 11008KT 26/21 A2993 RMK A01 T02560208  RH  075%=      5-min Rain = 0
KTR1 060739Z 11008KT 26/21 A2993 RMK A01 T02550208  RH  075%=      5-min Rain = 0
KTR1 060740Z 11009KT 26/21 A2993 RMK A01 T02550208  RH  075%=      5-min Rain = 0
KTR1 060741Z 11010KT 26/21 A2993 RMK A01 T02550208  RH  075%=      5-min Rain = 0
KTR1 060742Z 11010KT 26/21 A2993 RMK A01 T02550208  RH  075%=      5-min Rain = 0
KTR1 060743Z 12009KT 26/21 A2993 RMK A01 T02550208  RH  075%=      5-min Rain = 0
KTR1 060744Z 11009KT 26/21 A2993 RMK A01 T02550208  RH  075%=      5-min Rain = 0
KTR1 060745Z 11009KT 26/21 A2993 RMK A01 T02550208  RH  075%=      5-min Rain = 0
KTR1 060746Z 11011KT 25/21 A2993 RMK A01 T02540208  RH  075%=      5-min Rain = 0
KTR1 060747Z 10011KT 26/21 A2993 RMK A01 T02550208  RH  075%=      5-min Rain = 0
KTR1 060748Z 10010KT 26/21 A2993 RMK A01 T02550208  RH  075%=      5-min Rain = 0
KTR1 060749Z 11009KT 26/21 A2993 RMK A01 T02550208  RH  075%=      5-min Rain = 0
KTR1 060750Z 11009KT 26/21 A2993 RMK A01 T02550208  RH  075%=      5-min Rain = 0
KTR1 060751Z 10009KT 25/21 A2993 RMK A01 T02540208  RH  075%=      5-min Rain = 0
KTR1 060752Z 10010KT 26/21 A2993 RMK A01 T02550209  RH  076%=      5-min Rain = 0
KTR1 060753Z 10011KT 25/21 A2993 RMK A01 T02540208  RH  076%=      5-min Rain = 0
KTR1 060754Z 09011KT 25/21 A2993 RMK A01 T02540208  RH  076%=      5-min Rain = 0
KTR1 060755Z 10011KT 25/21 A2993 RMK A01 T02540208  RH  076%=      5-min Rain = 0
KTR1 060756Z 10011KT 26/21 A2994 RMK A01 T02550208  RH  076%=      5-min Rain = 0
KTR1 060757Z 10010KT 26/21 A2994 RMK A01 T02550208  RH  076%=      5-min Rain = 0
KTR1 060758Z 10009KT 26/21 A2994 RMK A01 T02550208  RH  075%=      5-min Rain = 0
KTR1 060759Z 11008KT 25/21 A2994 RMK A01 T02540208  RH  075%=      5-min Rain = 0
KTR1 060800Z 11010KT 26/21 A2994 RMK A01 T02550208  RH  075%=      5-min Rain = 0
KTR1 060801Z 11008KT 26/21 A2994 RMK A01 T02550208  RH  076%=      5-min Rain = 0
KTR1 060802Z 10008KT 25/21 A2994 RMK A01 T02540208  RH  075%=      5-min Rain = 0
KTR1 060803Z 10008KT 25/21 A2994 RMK A01 T02540208  RH  075%=      5-min Rain = 0
KTR1 060804Z 10009KT 25/21 A2994 RMK A01 T02540208  RH  075%=      5-min Rain = 0
KTR1 060805Z 11009KT 25/21 A2994 RMK A01 T02540208  RH  076%=      5-min Rain = 0
KTR1 060806Z 10010KT 25/21 A2994 RMK A01 T02540208  RH  076%=      5-min Rain = 0
KTR1 060807Z 10010KT 25/21 A2993 RMK A01 T02540208  RH  076%=      5-min Rain = 0
KTR1 060808Z 10008KT 25/21 A2993 RMK A01 T02540208  RH  076%=      5-min Rain = 0
KTR1 060809Z 11009KT 25/21 A2993 RMK A01 T02540208  RH  076%=      5-min Rain = 0
KTR1 060810Z 12009KT 25/21 A2993 RMK A01 T02540208  RH  076%=      5-min Rain = 0
KTR1 060811Z 13009KT 25/21 A2994 RMK A01 T02540208  RH  076%=      5-min Rain = 0
KTR1 060812Z 11009KT 25/21 A2993 RMK A01 T02540208  RH  076%=      5-min Rain = 0
KTR1 060813Z 12011KT 25/21 A2993 RMK A01 T02540208  RH  076%=      5-min Rain = 0
KTR1 060814Z 12011KT 26/21 A2993 RMK A01 T02550208  RH  075%=      5-min Rain = 0
KTR1 060815Z 12010KT 26/21 A2993 RMK A01 T02550208  RH  075%=      5-min Rain = 0
KTR1 060816Z 12010KT 26/21 A2993 RMK A01 T02550209  RH  076%=      5-min Rain = 0
KTR1 060817Z 11009KT 25/21 A2993 RMK A01 T02540209  RH  076%=      5-min Rain = 0
KTR1 060818Z 11009KT 25/21 A2993 RMK A01 T02540209  RH  076%=      5-min Rain = 0
KTR1 060819Z 12009KT 25/21 A2993 RMK A01 T02540209  RH  076%=      5-min Rain = 0
KTR1 060820Z 12009KT 25/21 A2993 RMK A01 T02530208  RH  076%=      5-min Rain = 0
KTR1 060821Z 12008KT 25/21 A2993 RMK A01 T02530209  RH  076%=      5-min Rain = 0
KTR1 060822Z 12010KT 25/21 A2993 RMK A01 T02530209  RH  076%=      5-min Rain = 0
KTR1 060823Z 12009KT 25/21 A2994 RMK A01 T02530209  RH  076%=      5-min Rain = 0
KTR1 060824Z 11009KT 25/21 A2994 RMK A01 T02530209  RH  076%=      5-min Rain = 0
KTR1 060825Z 12009KT 25/21 A2994 RMK A01 T02530209  RH  076%=      5-min Rain = 0
KTR1 060826Z 12008KT 25/21 A2994 RMK A01 T02530209  RH  076%=      5-min Rain = 0
KTR1 060827Z 11007KT 25/21 A2994 RMK A01 T02530208  RH  076%=      5-min Rain = 0
KTR1 060828Z 12008KT 25/21 A2994 RMK A01 T02530208  RH  076%=      5-min Rain = 0
KTR1 060829Z 13008KT 25/21 A2994 RMK A01 T02530209  RH  076%=      5-min Rain = 0
KTR1 060830Z 12009KT 25/21 A2994 RMK A01 T02520208  RH  076%=      5-min Rain = 0
KTR1 060831Z 12009KT 25/21 A2994 RMK A01 T02520208  RH  077%=      5-min Rain = 0
KTR1 060832Z 11008KT 25/21 A2993 RMK A01 T02520208  RH  076%=      5-min Rain = 0
KTR1 060833Z 12008KT 25/21 A2993 RMK A01 T02520208  RH  076%=      5-min Rain = 0
KTR1 060834Z 11008KT 25/21 A2993 RMK A01 T02520208  RH  077%=      5-min Rain = 0
KTR1 060835Z 12007KT 25/21 A2993 RMK A01 T02520208  RH  077%=      5-min Rain = 0
KTR1 060836Z 12008KT 25/21 A2993 RMK A01 T02510208  RH  077%=      5-min Rain = 0
KTR1 060837Z 12008KT 25/21 A2993 RMK A01 T02510208  RH  077%=      5-min Rain = 0
KTR1 060838Z 12008KT 25/21 A2993 RMK A01 T02510208  RH  077%=      5-min Rain = 0
KTR1 060839Z 12008KT 25/21 A2993 RMK A01 T02520208  RH  077%=      5-min Rain = 0
KTR1 060840Z 12008KT 25/21 A2993 RMK A01 T02520208  RH  077%=      5-min Rain = 0
KTR1 060841Z 12009KT 25/21 A2993 RMK A01 T02510209  RH  077%=      5-min Rain = 0
KTR1 060842Z 13008KT 25/21 A2993 RMK A01 T02510208  RH  077%=      5-min Rain = 0
KTR1 060843Z 12008KT 25/21 A2993 RMK A01 T02510208  RH  077%=      5-min Rain = 0
KTR1 060844Z 12008KT 25/21 A2993 RMK A01 T02510208  RH  077%=      5-min Rain = 0
KTR1 060845Z 12010KT 25/21 A2993 RMK A01 T02510209  RH  077%=      5-min Rain = 0
KTR1 060846Z 12008KT 25/21 A2993 RMK A01 T02520209  RH  077%=      5-min Rain = 0
KTR1 060847Z 12008KT 25/21 A2993 RMK A01 T02510208  RH  077%=      5-min Rain = 0
KTR1 060848Z 12009KT 25/21 A2993 RMK A01 T02510209  RH  077%=      5-min Rain = 0
KTR1 060849Z 12010KT 25/21 A2993 RMK A01 T02510209  RH  077%=      5-min Rain = 0
KTR1 060850Z 11009KT 25/21 A2993 RMK A01 T02520209  RH  077%=      5-min Rain = 0
KTR1 060851Z 11010KT 25/21 A2993 RMK A01 T02510209  RH  077%=      5-min Rain = 0
KTR1 060852Z 11009KT 25/21 A2993 RMK A01 T02520209  RH  077%=      5-min Rain = 0
KTR1 060853Z 11009KT 25/21 A2993 RMK A01 T02510209  RH  077%=      5-min Rain = 0
KTR1 060854Z 11010KT 25/21 A2993 RMK A01 T02510209  RH  078%=      5-min Rain = 0
KTR1 060855Z 12009KT 25/21 A2993 RMK A01 T02510209  RH  077%=      5-min Rain = 0
KTR1 060856Z 12009KT 25/21 A2993 RMK A01 T02510209  RH  077%=      5-min Rain = 0
KTR1 060857Z 12010KT 25/21 A2993 RMK A01 T02510209  RH  077%=      5-min Rain = 0
KTR1 060858Z 12009KT 25/21 A2993 RMK A01 T02510209  RH  077%=      5-min Rain = 0
KTR1 060859Z 12008KT 25/21 A2993 RMK A01 T02510209  RH  077%=      5-min Rain = 0
KTR1 060900Z 12008KT 25/21 A2993 RMK A01 T02510209  RH  077%=      5-min Rain = 0
KTR1 060901Z 12008KT 25/21 A2993 RMK A01 T02500209  RH  078%=      5-min Rain = 0
KTR1 060902Z 12009KT 25/21 A2993 RMK A01 T02500209  RH  078%=      5-min Rain = 0
KTR1 060903Z 12008KT 25/21 A2993 RMK A01 T02500209  RH  078%=      5-min Rain = 0
KTR1 060904Z 12007KT 25/21 A2993 RMK A01 T02510209  RH  078%=      5-min Rain = 0
KTR1 060905Z 12008KT 25/21 A2993 RMK A01 T02500209  RH  078%=      5-min Rain = 0
KTR1 060906Z 12007KT 25/21 A2993 RMK A01 T02500209  RH  078%=      5-min Rain = 0
KTR1 060907Z 12007KT 25/21 A2993 RMK A01 T02500209  RH  078%=      5-min Rain = 0
KTR1 060908Z 12008KT 25/21 A2994 RMK A01 T02500209  RH  078%=      5-min Rain = 0
KTR1 060909Z 12007KT 25/21 A2994 RMK A01 T02490209  RH  078%=      5-min Rain = 0
KTR1 060910Z 13007KT 25/21 A2994 RMK A01 T02490209  RH  078%=      5-min Rain = 0
KTR1 060911Z 12007KT 25/21 A2994 RMK A01 T02490208  RH  078%=      5-min Rain = 0
KTR1 060912Z 12007KT 25/21 A2993 RMK A01 T02490209  RH  078%=      5-min Rain = 0
KTR1 060913Z 12008KT 25/21 A2993 RMK A01 T02490209  RH  078%=      5-min Rain = 0
KTR1 060914Z 12009KT 25/21 A2993 RMK A01 T02490209  RH  078%=      5-min Rain = 0
KTR1 060915Z 12008KT 25/21 A2993 RMK A01 T02490208  RH  078%=      5-min Rain = 0
KTR1 060916Z 13009KT 25/21 A2993 RMK A01 T02490208  RH  078%=      5-min Rain = 0
KTR1 060917Z 13009KT 25/21 A2993 RMK A01 T02490208  RH  078%=      5-min Rain = 0
KTR1 060918Z 13009KT 25/21 A2993 RMK A01 T02490208  RH  078%=      5-min Rain = 0
KTR1 060919Z 13008KT 25/21 A2993 RMK A01 T02490208  RH  078%=      5-min Rain = 0
KTR1 060920Z 13008KT 25/21 A2993 RMK A01 T02490208  RH  078%=      5-min Rain = 0
KTR1 060921Z 13007KT 25/21 A2993 RMK A01 T02490208  RH  078%=      5-min Rain = 0
KTR1 060922Z 13008KT 25/21 A2993 RMK A01 T02490209  RH  078%=      5-min Rain = 0
KTR1 060923Z 13008KT 25/21 A2993 RMK A01 T02490208  RH  078%=      5-min Rain = 0
KTR1 060924Z 13007KT 25/21 A2993 RMK A01 T02490208  RH  078%=      5-min Rain = 0
KTR1 060925Z 13007KT 25/21 A2993 RMK A01 T02490208  RH  078%=      5-min Rain = 0
KTR1 060926Z 12009KT 25/21 A2993 RMK A01 T02490208  RH  078%=      5-min Rain = 0
KTR1 060927Z 13008KT 25/21 A2993 RMK A01 T02490209  RH  078%=      5-min Rain = 0
KTR1 060928Z 13008KT 25/21 A2993 RMK A01 T02490209  RH  078%=      5-min Rain = 0
KTR1 060929Z 13008KT 25/21 A2993 RMK A01 T02490208  RH  078%=      5-min Rain = 0
KTR1 060930Z 13009KT 25/21 A2993 RMK A01 T02500208  RH  078%=      5-min Rain = 0
KTR1 060931Z 13010KT 25/21 A2993 RMK A01 T02500209  RH  078%=      5-min Rain = 0
KTR1 060932Z 13009KT 25/21 A2993 RMK A01 T02490208  RH  078%=      5-min Rain = 0
KTR1 060933Z 13009KT 25/21 A2993 RMK A01 T02500208  RH  078%=      5-min Rain = 0
KTR1 060934Z 13009KT 25/21 A2993 RMK A01 T02500208  RH  078%=      5-min Rain = 0
KTR1 060935Z 13009KT 25/21 A2993 RMK A01 T02500208  RH  077%=      5-min Rain = 0
KTR1 060936Z 13009KT 25/21 A2993 RMK A01 T02500208  RH  078%=      5-min Rain = 0
KTR1 060937Z 13008KT 25/21 A2993 RMK A01 T02500208  RH  077%=      5-min Rain = 0
KTR1 060938Z 13009KT 25/21 A2993 RMK A01 T02500208  RH  078%=      5-min Rain = 0
KTR1 060939Z 13009KT 25/21 A2993 RMK A01 T02500208  RH  078%=      5-min Rain = 0
KTR1 060940Z 13009KT 25/21 A2993 RMK A01 T02490208  RH  078%=      5-min Rain = 0
KTR1 060941Z 13008KT 25/21 A2993 RMK A01 T02500208  RH  078%=      5-min Rain = 0
KTR1 060942Z 13008KT 25/21 A2993 RMK A01 T02500208  RH  078%=      5-min Rain = 0
KTR1 060943Z 13008KT 25/21 A2993 RMK A01 T02500208  RH  078%=      5-min Rain = 0
KTR1 060944Z 13008KT 25/21 A2993 RMK A01 T02500208  RH  078%=      5-min Rain = 0
KTR1 060945Z 13008KT 25/21 A2993 RMK A01 T02500208  RH  077%=      5-min Rain = 0
KTR1 060946Z 13008KT 25/21 A2993 RMK A01 T02500207  RH  077%=      5-min Rain = 0
KTR1 060947Z 14008KT 25/21 A2993 RMK A01 T02500207  RH  077%=      5-min Rain = 0
KTR1 060948Z 13007KT 25/21 A2993 RMK A01 T02500207  RH  077%=      5-min Rain = 0
KTR1 060949Z 13008KT 25/21 A2993 RMK A01 T02490207  RH  077%=      5-min Rain = 0
KTR1 060950Z 14008KT 25/21 A2993 RMK A01 T02490207  RH  077%=      5-min Rain = 0
KTR1 060951Z 14009KT 25/21 A2993 RMK A01 T02490207  RH  077%=      5-min Rain = 0
KTR1 060952Z 13008KT 25/21 A2993 RMK A01 T02490207  RH  077%=      5-min Rain = 0
KTR1 060953Z 13008KT 25/21 A2993 RMK A01 T02490207  RH  077%=      5-min Rain = 0
KTR1 060954Z 13007KT 25/21 A2994 RMK A01 T02490207  RH  077%=      5-min Rain = 0
KTR1 060955Z 14007KT 25/21 A2994 RMK A01 T02490207  RH  077%=      5-min Rain = 0
KTR1 060956Z 14008KT 25/21 A2994 RMK A01 T02490207  RH  077%=      5-min Rain = 0
KTR1 060957Z 13008KT 25/21 A2994 RMK A01 T02490207  RH  077%=      5-min Rain = 0
KTR1 060958Z 14008KT 25/21 A2993 RMK A01 T02490207  RH  078%=      5-min Rain = 0
KTR1 060959Z 14008KT 25/21 A2993 RMK A01 T02490206  RH  077%=      5-min Rain = 0
KTR1 061000Z 14009KT 25/21 A2993 RMK A01 T02490206  RH  077%=      5-min Rain = 0
KTR1 061001Z 14008KT 25/21 A2993 RMK A01 T02490206  RH  077%=      5-min Rain = 0
KTR1 061002Z 14009KT 25/21 A2993 RMK A01 T02490206  RH  077%=      5-min Rain = 0
KTR1 061003Z 14009KT 25/21 A2993 RMK A01 T02490206  RH  077%=      5-min Rain = 0
KTR1 061004Z 15008KT 25/21 A2993 RMK A01 T02500207  RH  077%=      5-min Rain = 0
KTR1 061005Z 15008KT 25/21 A2993 RMK A01 T02500206  RH  077%=      5-min Rain = 0
KTR1 061006Z 15008KT 25/21 A2993 RMK A01 T02500207  RH  077%=      5-min Rain = 0
KTR1 061007Z 15008KT 25/21 A2993 RMK A01 T02490206  RH  077%=      5-min Rain = 0
KTR1 061008Z 14009KT 25/21 A2993 RMK A01 T02490207  RH  077%=      5-min Rain = 0
KTR1 061009Z 15010KT 25/21 A2993 RMK A01 T02490206  RH  077%=      5-min Rain = 0
KTR1 061010Z 14009KT 25/21 A2993 RMK A01 T02490206  RH  077%=      5-min Rain = 0
KTR1 061011Z 14010KT 25/21 A2993 RMK A01 T02490206  RH  077%=      5-min Rain = 0
KTR1 061012Z 15009KT 25/21 A2993 RMK A01 T02490206  RH  077%=      5-min Rain = 0
KTR1 061013Z 15010KT 25/21 A2993 RMK A01 T02500206  RH  077%=      5-min Rain = 0
KTR1 061014Z 14010KT 25/21 A2993 RMK A01 T02500206  RH  076%=      5-min Rain = 0
KTR1 061015Z 14009KT 25/21 A2993 RMK A01 T02500206  RH  076%=      5-min Rain = 0
KTR1 061016Z 14010KT 25/21 A2993 RMK A01 T02500206  RH  076%=      5-min Rain = 0
KTR1 061017Z 14009KT 25/20 A2993 RMK A01 T02500204  RH  076%=      5-min Rain = 0
KTR1 061018Z 15009KT 25/20 A2993 RMK A01 T02500204  RH  076%=      5-min Rain = 0
KTR1 061019Z 15009KT 25/20 A2993 RMK A01 T02500204  RH  076%=      5-min Rain = 0
KTR1 061020Z 15008KT 25/20 A2993 RMK A01 T02500204  RH  076%=      5-min Rain = 0
KTR1 061021Z 15008KT 25/20 A2993 RMK A01 T02490204  RH  076%=      5-min Rain = 0
KTR1 061022Z 15008KT 25/20 A2993 RMK A01 T02490204  RH  076%=      5-min Rain = 0
KTR1 061023Z 15007KT 25/20 A2993 RMK A01 T02490204  RH  076%=      5-min Rain = 0
KTR1 061024Z 15009KT 25/20 A2993 RMK A01 T02490204  RH  076%=      5-min Rain = 0
KTR1 061025Z 15009KT 25/20 A2993 RMK A01 T02490204  RH  076%=      5-min Rain = 0
KTR1 061026Z 15010KT 25/20 A2993 RMK A01 T02490204  RH  076%=      5-min Rain = 0
KTR1 061027Z 15009KT 25/20 A2993 RMK A01 T02490204  RH  076%=      5-min Rain = 0
KTR1 061028Z 15009KT 25/20 A2993 RMK A01 T02480204  RH  076%=      5-min Rain = 0
KTR1 061029Z 15008KT 25/20 A2993 RMK A01 T02480204  RH  076%=      5-min Rain = 0
KTR1 061030Z 15008KT 25/20 A2993 RMK A01 T02480204  RH  076%=      5-min Rain = 0
KTR1 061031Z 15008KT 25/20 A2993 RMK A01 T02480204  RH  077%=      5-min Rain = 0
KTR1 061032Z 15009KT 25/20 A2993 RMK A01 T02470204  RH  077%=      5-min Rain = 0
KTR1 061033Z 15009KT 25/20 A2993 RMK A01 T02470203  RH  077%=      5-min Rain = 0
KTR1 061034Z 15008KT 25/20 A2993 RMK A01 T02470203  RH  076%=      5-min Rain = 0
KTR1 061035Z 15009KT 25/20 A2993 RMK A01 T02470203  RH  076%=      5-min Rain = 0
KTR1 061036Z 15008KT 25/20 A2993 RMK A01 T02470203  RH  076%=      5-min Rain = 0
KTR1 061037Z 15008KT 25/20 A2993 RMK A01 T02470203  RH  076%=      5-min Rain = 0
KTR1 061038Z 15008KT 25/20 A2993 RMK A01 T02470203  RH  076%=      5-min Rain = 0
KTR1 061039Z 15008KT 25/20 A2993 RMK A01 T02470203  RH  077%=      5-min Rain = 0
KTR1 061040Z 16007KT 25/20 A2993 RMK A01 T02460203  RH  077%=      5-min Rain = 0
KTR1 061041Z 15007KT 25/20 A2993 RMK A01 T02460203  RH  077%=      5-min Rain = 0
KTR1 061042Z 15007KT 25/20 A2993 RMK A01 T02460203  RH  077%=      5-min Rain = 0
KTR1 061043Z 15007KT 25/20 A2993 RMK A01 T02450202  RH  077%=      5-min Rain = 0
KTR1 061044Z 15007KT 25/20 A2993 RMK A01 T02450202  RH  077%=      5-min Rain = 0
KTR1 061045Z 15008KT 24/20 A2993 RMK A01 T02440203  RH  078%=      5-min Rain = 0
KTR1 061046Z 14008KT 24/20 A2993 RMK A01 T02440203  RH  078%=      5-min Rain = 0
KTR1 061047Z 15008KT 24/20 A2993 RMK A01 T02440203  RH  078%=      5-min Rain = 0
KTR1 061048Z 15008KT 24/20 A2993 RMK A01 T02440202  RH  077%=      5-min Rain = 0
KTR1 061049Z 14008KT 24/20 A2993 RMK A01 T02440202  RH  077%=      5-min Rain = 0
KTR1 061050Z 14007KT 24/20 A2993 RMK A01 T02440202  RH  078%=      5-min Rain = 0
KTR1 061051Z 14007KT 24/20 A2993 RMK A01 T02430202  RH  078%=      5-min Rain = 0
KTR1 061052Z 14007KT 24/20 A2993 RMK A01 T02430202  RH  078%=      5-min Rain = 0
KTR1 061053Z 15008KT 24/20 A2993 RMK A01 T02430201  RH  078%=      5-min Rain = 0
KTR1 061054Z 15008KT 24/20 A2993 RMK A01 T02430201  RH  078%=      5-min Rain = 0
KTR1 061055Z 14007KT 24/20 A2993 RMK A01 T02430201  RH  077%=      5-min Rain = 0
KTR1 061056Z 15008KT 24/20 A2993 RMK A01 T02430201  RH  077%=      5-min Rain = 0
KTR1 061057Z 14007KT 24/20 A2993 RMK A01 T02430201  RH  077%=      5-min Rain = 0
KTR1 061058Z 15007KT 24/20 A2993 RMK A01 T02430201  RH  077%=      5-min Rain = 0
KTR1 061059Z 15008KT 24/20 A2993 RMK A01 T02430201  RH  077%=      5-min Rain = 0
KTR1 061100Z 15007KT 24/20 A2993 RMK A01 T02430200  RH  077%=      5-min Rain = 0
KTR1 061101Z 15007KT 24/20 A2993 RMK A01 T02430200  RH  077%=      5-min Rain = 0
KTR1 061102Z 15008KT 24/20 A2993 RMK A01 T02430200  RH  077%=      5-min Rain = 0
KTR1 061103Z 15007KT 24/20 A2993 RMK A01 T02430200  RH  077%=      5-min Rain = 0
KTR1 061104Z 15007KT 24/20 A2993 RMK A01 T02420200  RH  077%=      5-min Rain = 0
KTR1 061105Z 15008KT 24/20 A2993 RMK A01 T02420200  RH  077%=      5-min Rain = 0
KTR1 061106Z 15008KT 24/20 A2993 RMK A01 T02420199  RH  077%=      5-min Rain = 0
KTR1 061107Z 14008KT 24/20 A2993 RMK A01 T02420199  RH  077%=      5-min Rain = 0
KTR1 061108Z 15008KT 24/20 A2993 RMK A01 T02420198  RH  076%=      5-min Rain = 0
KTR1 061109Z 14007KT 24/20 A2993 RMK A01 T02420198  RH  076%=      5-min Rain = 0
KTR1 061110Z 14008KT 24/20 A2993 RMK A01 T02420198  RH  076%=      5-min Rain = 0
KTR1 061111Z 14008KT 24/20 A2993 RMK A01 T02420197  RH  076%=      5-min Rain = 0
KTR1 061112Z 15008KT 24/20 A2993 RMK A01 T02420197  RH  076%=      5-min Rain = 0
KTR1 061113Z 15007KT 24/20 A2993 RMK A01 T02420197  RH  076%=      5-min Rain = 0
KTR1 061114Z 15007KT 24/20 A2993 RMK A01 T02420197  RH  076%=      5-min Rain = 0
KTR1 061115Z 15007KT 24/20 A2993 RMK A01 T02420197  RH  076%=      5-min Rain = 0
KTR1 061116Z 15007KT 24/20 A2993 RMK A01 T02420196  RH  076%=      5-min Rain = 0
KTR1 061117Z 15007KT 24/20 A2993 RMK A01 T02420196  RH  076%=      5-min Rain = 0
KTR1 061118Z 15007KT 24/20 A2993 RMK A01 T02420196  RH  076%=      5-min Rain = 0
KTR1 061119Z 15007KT 24/20 A2993 RMK A01 T02420196  RH  075%=      5-min Rain = 0
KTR1 061120Z 15007KT 24/20 A2993 RMK A01 T02420196  RH  075%=      5-min Rain = 0
KTR1 061121Z 15007KT 24/20 A2993 RMK A01 T02410195  RH  075%=      5-min Rain = 0
KTR1 061122Z 15007KT 24/20 A2993 RMK A01 T02410195  RH  075%=      5-min Rain = 0
KTR1 061123Z 15006KT 24/20 A2993 RMK A01 T02410195  RH  075%=      5-min Rain = 0
KTR1 061124Z 15006KT 24/19 A2993 RMK A01 T02410194  RH  075%=      5-min Rain = 0
KTR1 061125Z 15007KT 24/19 A2993 RMK A01 T02410194  RH  075%=      5-min Rain = 0
KTR1 061126Z 15006KT 24/19 A2994 RMK A01 T02410194  RH  075%=      5-min Rain = 0
KTR1 061127Z 15006KT 24/19 A2994 RMK A01 T02410194  RH  075%=      5-min Rain = 0
KTR1 061128Z 15006KT 24/19 A2994 RMK A01 T02400194  RH  075%=      5-min Rain = 0
KTR1 061129Z 15006KT 24/19 A2994 RMK A01 T02400194  RH  075%=      5-min Rain = 0
KTR1 061130Z 15006KT 24/19 A2994 RMK A01 T02400193  RH  075%=      5-min Rain = 0
KTR1 061131Z 15006KT 24/19 A2994 RMK A01 T02400193  RH  075%=      5-min Rain = 0
KTR1 061132Z 15006KT 24/19 A2994 RMK A01 T02400193  RH  075%=      5-min Rain = 0
KTR1 061133Z 15007KT 24/19 A2994 RMK A01 T02390193  RH  075%=      5-min Rain = 0
KTR1 061134Z 15006KT 24/19 A2994 RMK A01 T02390193  RH  075%=      5-min Rain = 0
KTR1 061135Z 15006KT 24/19 A2994 RMK A01 T02390193  RH  075%=      5-min Rain = 0
KTR1 061136Z 15007KT 24/19 A2994 RMK A01 T02390192  RH  075%=      5-min Rain = 0
KTR1 061137Z 15006KT 24/19 A2994 RMK A01 T02390192  RH  075%=      5-min Rain = 0
KTR1 061138Z 15006KT 24/19 A2994 RMK A01 T02390192  RH  075%=      5-min Rain = 0
KTR1 061139Z 15006KT 24/19 A2994 RMK A01 T02390192  RH  075%=      5-min Rain = 0
KTR1 061140Z 15006KT 24/19 A2994 RMK A01 T02390192  RH  075%=      5-min Rain = 0
KTR1 061141Z 15006KT 24/19 A2994 RMK A01 T02390191  RH  075%=      5-min Rain = 0
KTR1 061142Z 15006KT 24/19 A2994 RMK A01 T02380191  RH  075%=      5-min Rain = 0
KTR1 061143Z 15006KT 24/19 A2994 RMK A01 T02390191  RH  075%=      5-min Rain = 0
KTR1 061144Z 15006KT 24/19 A2994 RMK A01 T02380191  RH  075%=      5-min Rain = 0
KTR1 061145Z 15006KT 24/19 A2994 RMK A01 T02380191  RH  075%=      5-min Rain = 0
KTR1 061146Z 15006KT 24/19 A2994 RMK A01 T02380191  RH  075%=      5-min Rain = 0
KTR1 061147Z 15006KT 24/19 A2994 RMK A01 T02380190  RH  075%=      5-min Rain = 0
KTR1 061148Z 15006KT 24/19 A2994 RMK A01 T02380190  RH  075%=      5-min Rain = 0
KTR1 061149Z 15006KT 24/19 A2994 RMK A01 T02370190  RH  075%=      5-min Rain = 0
KTR1 061150Z 15006KT 24/19 A2994 RMK A01 T02370190  RH  075%=      5-min Rain = 0
KTR1 061151Z 15006KT 24/19 A2994 RMK A01 T02370189  RH  075%=      5-min Rain = 0
KTR1 061152Z 15006KT 24/19 A2994 RMK A01 T02370190  RH  075%=      5-min Rain = 0
KTR1 061153Z 15006KT 24/19 A2994 RMK A01 T02370189  RH  075%=      5-min Rain = 0
KTR1 061154Z 16006KT 24/19 A2994 RMK A01 T02370190  RH  075%=      5-min Rain = 0
KTR1 061155Z 16006KT 24/19 A2994 RMK A01 T02370189  RH  075%=      5-min Rain = 0
KTR1 061156Z 16006KT 24/19 A2994 RMK A01 T02360189  RH  075%=      5-min Rain = 0
KTR1 061157Z 16006KT 24/19 A2994 RMK A01 T02360189  RH  075%=      5-min Rain = 0
KTR1 061158Z 15006KT 24/19 A2994 RMK A01 T02360188  RH  075%=      5-min Rain = 0
KTR1 061159Z 15006KT 24/19 A2994 RMK A01 T02350188  RH  075%=      5-min Rain = 0
KTR1 061200Z 15006KT 24/19 A2994 RMK A01 T02350188  RH  075%=      5-min Rain = 0
KTR1 061201Z 15007KT 24/19 A2994 RMK A01 T02350188  RH  075%=      5-min Rain = 0
KTR1 061202Z 15007KT 24/19 A2994 RMK A01 T02350188  RH  075%=      5-min Rain = 0
KTR1 061203Z 16007KT 24/19 A2994 RMK A01 T02350188  RH  075%=      5-min Rain = 0
KTR1 061204Z 16007KT 24/19 A2994 RMK A01 T02350188  RH  075%=      5-min Rain = 0
KTR1 061205Z 16007KT 24/19 A2994 RMK A01 T02350188  RH  075%=      5-min Rain = 0
KTR1 061206Z 16007KT 24/19 A2994 RMK A01 T02350187  RH  075%=      5-min Rain = 0
KTR1 061207Z 16007KT 23/19 A2994 RMK A01 T02340187  RH  075%=      5-min Rain = 0
KTR1 061208Z 15007KT 23/19 A2994 RMK A01 T02340187  RH  075%=      5-min Rain = 0
KTR1 061209Z 15007KT 23/19 A2994 RMK A01 T02340187  RH  075%=      5-min Rain = 0
KTR1 061210Z 15007KT 24/19 A2994 RMK A01 T02350188  RH  075%=      5-min Rain = 0
KTR1 061211Z 15007KT 23/19 A2994 RMK A01 T02340187  RH  075%=      5-min Rain = 0
KTR1 061212Z 16007KT 23/19 A2994 RMK A01 T02340187  RH  075%=      5-min Rain = 0
KTR1 061213Z 16007KT 24/19 A2994 RMK A01 T02350187  RH  075%=      5-min Rain = 0
KTR1 061214Z 16007KT 23/19 A2994 RMK A01 T02340187  RH  075%=      5-min Rain = 0
KTR1 061215Z 16008KT 24/19 A2994 RMK A01 T02350187  RH  074%=      5-min Rain = 0
KTR1 061216Z 15008KT 24/19 A2994 RMK A01 T02350187  RH  074%=      5-min Rain = 0
KTR1 061217Z 15008KT 24/19 A2994 RMK A01 T02350187  RH  074%=      5-min Rain = 0
KTR1 061218Z 15007KT 24/19 A2994 RMK A01 T02350187  RH  074%=      5-min Rain = 0
KTR1 061219Z 15007KT 24/19 A2994 RMK A01 T02360187  RH  074%=      5-min Rain = 0
KTR1 061220Z 15007KT 24/19 A2994 RMK A01 T02360186  RH  074%=      5-min Rain = 0
KTR1 061221Z 15007KT 24/19 A2994 RMK A01 T02360186  RH  074%=      5-min Rain = 0
KTR1 061222Z 15007KT 24/19 A2994 RMK A01 T02370187  RH  073%=      5-min Rain = 0
KTR1 061223Z 15007KT 24/19 A2994 RMK A01 T02370186  RH  073%=      5-min Rain = 0
KTR1 061224Z 15007KT 24/19 A2994 RMK A01 T02370186  RH  073%=      5-min Rain = 0
KTR1 061225Z 15007KT 24/19 A2994 RMK A01 T02380186  RH  073%=      5-min Rain = 0
KTR1 061226Z 15008KT 24/19 A2994 RMK A01 T02380186  RH  073%=      5-min Rain = 0
KTR1 061227Z 15008KT 24/19 A2994 RMK A01 T02380186  RH  072%=      5-min Rain = 0
KTR1 061228Z 15008KT 24/19 A2994 RMK A01 T02390186  RH  072%=      5-min Rain = 0
KTR1 061229Z 15008KT 24/19 A2994 RMK A01 T02400186  RH  072%=      5-min Rain = 0
KTR1 061230Z 15008KT 24/19 A2994 RMK A01 T02400186  RH  072%=      5-min Rain = 0
KTR1 061231Z 15008KT 24/19 A2994 RMK A01 T02400185  RH  071%=      5-min Rain = 0
KTR1 061232Z 15008KT 24/19 A2994 RMK A01 T02410185  RH  071%=      5-min Rain = 0
KTR1 061233Z 15008KT 24/19 A2994 RMK A01 T02410185  RH  071%=      5-min Rain = 0
KTR1 061234Z 15008KT 24/19 A2994 RMK A01 T02410185  RH  071%=      5-min Rain = 0
KTR1 061235Z 15008KT 24/19 A2994 RMK A01 T02420185  RH  071%=      5-min Rain = 0
KTR1 061236Z 15008KT 24/19 A2994 RMK A01 T02420185  RH  070%=      5-min Rain = 0
KTR1 061237Z 15008KT 24/18 A2994 RMK A01 T02420184  RH  070%=      5-min Rain = 0
KTR1 061238Z 15008KT 24/18 A2994 RMK A01 T02430184  RH  070%=      5-min Rain = 0
KTR1 061239Z 15008KT 24/18 A2994 RMK A01 T02430184  RH  070%=      5-min Rain = 0
KTR1 061240Z 16008KT 24/18 A2994 RMK A01 T02440184  RH  069%=      5-min Rain = 0
KTR1 061241Z 16008KT 24/18 A2994 RMK A01 T02440184  RH  069%=      5-min Rain = 0
KTR1 061242Z 16008KT 24/18 A2994 RMK A01 T02440184  RH  069%=      5-min Rain = 0
KTR1 061243Z 15008KT 24/18 A2994 RMK A01 T02440183  RH  069%=      5-min Rain = 0
KTR1 061244Z 16008KT 25/18 A2994 RMK A01 T02450183  RH  069%=      5-min Rain = 0
KTR1 061245Z 16008KT 25/18 A2994 RMK A01 T02450183  RH  068%=      5-min Rain = 0
KTR1 061246Z 16008KT 25/18 A2994 RMK A01 T02460183  RH  068%=      5-min Rain = 0
KTR1 061247Z 16008KT 25/18 A2994 RMK A01 T02460183  RH  068%=      5-min Rain = 0
KTR1 061248Z 16008KT 25/18 A2994 RMK A01 T02460183  RH  068%=      5-min Rain = 0
KTR1 061249Z 16008KT 25/18 A2994 RMK A01 T02470182  RH  067%=      5-min Rain = 0
KTR1 061250Z 16008KT 25/18 A2994 RMK A01 T02470182  RH  067%=      5-min Rain = 0
KTR1 061251Z 16008KT 25/18 A2994 RMK A01 T02480183  RH  067%=      5-min Rain = 0
KTR1 061252Z 16008KT 25/18 A2994 RMK A01 T02470182  RH  067%=      5-min Rain = 0
KTR1 061253Z 16008KT 25/18 A2994 RMK A01 T02480182  RH  067%=      5-min Rain = 0
KTR1 061254Z 16008KT 25/18 A2994 RMK A01 T02480181  RH  066%=      5-min Rain = 0
KTR1 061255Z 17008KT 25/18 A2994 RMK A01 T02490181  RH  066%=      5-min Rain = 0
KTR1 061256Z 17008KT 25/18 A2994 RMK A01 T02490181  RH  066%=      5-min Rain = 0
KTR1 061257Z 17009KT 25/18 A2994 RMK A01 T02500181  RH  065%=      5-min Rain = 0
KTR1 061258Z 17008KT 25/18 A2994 RMK A01 T02500180  RH  065%=      5-min Rain = 0
KTR1 061259Z 18008KT 25/18 A2994 RMK A01 T02500180  RH  065%=      5-min Rain = 0
KTR1 061300Z 17008KT 25/18 A2994 RMK A01 T02510179  RH  065%=      5-min Rain = 0
KTR1 061301Z 18008KT 25/18 A2994 RMK A01 T02520179  RH  064%=      5-min Rain = 0
KTR1 061302Z 18008KT 25/18 A2994 RMK A01 T02520179  RH  064%=      5-min Rain = 0
KTR1 061303Z 18008KT 25/18 A2994 RMK A01 T02530179  RH  064%=      5-min Rain = 0
KTR1 061304Z 18007KT 25/18 A2994 RMK A01 T02530179  RH  063%=      5-min Rain = 0
KTR1 061305Z 18007KT 25/18 A2994 RMK A01 T02540179  RH  063%=      5-min Rain = 0
KTR1 061306Z 18007KT 26/18 A2994 RMK A01 T02550179  RH  063%=      5-min Rain = 0
KTR1 061307Z 18007KT 26/18 A2994 RMK A01 T02550178  RH  062%=      5-min Rain = 0
KTR1 061308Z 18008KT 26/18 A2994 RMK A01 T02560177  RH  062%=      5-min Rain = 0
KTR1 061309Z 18007KT 26/18 A2994 RMK A01 T02570177  RH  061%=      5-min Rain = 0
KTR1 061310Z 18007KT 26/18 A2994 RMK A01 T02580176  RH  061%=      5-min Rain = 0
KTR1 061311Z 17007KT 26/18 A2994 RMK A01 T02590175  RH  060%=      5-min Rain = 0
KTR1 061312Z 18007KT 26/18 A2994 RMK A01 T02590175  RH  060%=      5-min Rain = 0
KTR1 061313Z 18007KT 26/18 A2994 RMK A01 T02600175  RH  059%=      5-min Rain = 0
KTR1 061314Z 18008KT 26/17 A2994 RMK A01 T02600174  RH  059%=      5-min Rain = 0
KTR1 061315Z 18007KT 26/17 A2994 RMK A01 T02610174  RH  059%=      5-min Rain = 0
KTR1 061316Z 17005KT 26/17 A2995 RMK A01 T02620174  RH  059%=      5-min Rain = 0
KTR1 061317Z 17006KT 26/17 A2995 RMK A01 T02630174  RH  058%=      5-min Rain = 0
KTR1 061318Z 18006KT 26/17 A2995 RMK A01 T02640172  RH  057%=      5-min Rain = 0
KTR1 061319Z 18007KT 27/17 A2995 RMK A01 T02650173  RH  057%=      5-min Rain = 0
KTR1 061320Z 18006KT 27/17 A2995 RMK A01 T02670172  RH  056%=      5-min Rain = 0
KTR1 061321Z 18007KT 27/17 A2995 RMK A01 T02680172  RH  056%=      5-min Rain = 0
KTR1 061322Z 18009KT 27/17 A2995 RMK A01 T02690170  RH  054%=      5-min Rain = 0
KTR1 061323Z 18008KT 27/17 A2995 RMK A01 T02710169  RH  054%=      5-min Rain = 0
KTR1 061324Z 18010KT 27/17 A2995 RMK A01 T02720167  RH  053%=      5-min Rain = 0
KTR1 061325Z 18011KT 27/17 A2994 RMK A01 T02740166  RH  052%=      5-min Rain = 0
KTR1 061326Z 19009KT 28/17 A2995 RMK A01 T02750167  RH  052%=      5-min Rain = 0
KTR1 061327Z 19010KT 28/17 A2995 RMK A01 T02760167  RH  051%=      5-min Rain = 0
KTR1 061328Z 18010KT 28/17 A2994 RMK A01 T02770166  RH  051%=      5-min Rain = 0
KTR1 061329Z 18010KT 28/17 A2994 RMK A01 T02780167  RH  051%=      5-min Rain = 0
KTR1 061330Z 18012KT 28/17 A2995 RMK A01 T02790166  RH  050%=      5-min Rain = 0
KTR1 061331Z 18011KT 28/17 A2995 RMK A01 T02790165  RH  050%=      5-min Rain = 0
KTR1 061332Z 18011KT 28/17 A2995 RMK A01 T02800166  RH  050%=      5-min Rain = 0
KTR1 061333Z 18012KT 28/17 A2995 RMK A01 T02800165  RH  050%=      5-min Rain = 0
KTR1 061334Z 18011KT 28/17 A2995 RMK A01 T02810165  RH  049%=      5-min Rain = 0
KTR1 061335Z 18010KT 28/17 A2995 RMK A01 T02810166  RH  049%=      5-min Rain = 0
KTR1 061336Z 18011KT 28/17 A2995 RMK A01 T02830166  RH  049%=      5-min Rain = 0
KTR1 061337Z 18011KT 28/17 A2995 RMK A01 T02840166  RH  049%=      5-min Rain = 0
KTR1 061338Z 18012KT 28/17 A2995 RMK A01 T02840165  RH  048%=      5-min Rain = 0
KTR1 061339Z 18012KT 28/17 A2995 RMK A01 T02840165  RH  048%=      5-min Rain = 0
KTR1 061340Z 18011KT 29/17 A2995 RMK A01 T02850165  RH  048%=      5-min Rain = 0
KTR1 061341Z 18011KT 29/17 A2995 RMK A01 T02860167  RH  048%=      5-min Rain = 0
KTR1 061342Z 18013KT 29/17 A2995 RMK A01 T02880166  RH  048%=      5-min Rain = 0
KTR1 061343Z 18012KT 29/17 A2995 RMK A01 T02880165  RH  047%=      5-min Rain = 0
KTR1 061344Z 18013KT 29/17 A2995 RMK A01 T02880165  RH  047%=      5-min Rain = 0
KTR1 061345Z 18012KT 29/17 A2995 RMK A01 T02880166  RH  048%=      5-min Rain = 0
KTR1 061346Z 19011KT 29/17 A2995 RMK A01 T02880166  RH  048%=      5-min Rain = 0
KTR1 061347Z 19010KT 29/17 A2995 RMK A01 T02890167  RH  048%=      5-min Rain = 0
KTR1 061348Z 18012KT 29/17 A2995 RMK A01 T02900166  RH  047%=      5-min Rain = 0
KTR1 061349Z 19012KT 29/17 A2995 RMK A01 T02900166  RH  047%=      5-min Rain = 0
KTR1 061350Z 18011KT 29/17 A2995 RMK A01 T02900167  RH  047%=      5-min Rain = 0
KTR1 061351Z 18011KT 29/17 A2995 RMK A01 T02900167  RH  047%=      5-min Rain = 0
KTR1 061352Z 18013KT 29/17 A2995 RMK A01 T02900166  RH  047%=      5-min Rain = 0
KTR1 061353Z 18011KT 29/17 A2995 RMK A01 T02900166  RH  047%=      5-min Rain = 0
KTR1 061354Z 19012KT 29/17 A2995 RMK A01 T02910166  RH  047%=      5-min Rain = 0
KTR1 061355Z 19014KT 29/17 A2995 RMK A01 T02920166  RH  047%=      5-min Rain = 0
KTR1 061356Z 19010KT 29/17 A2995 RMK A01 T02900166  RH  047%=      5-min Rain = 0
KTR1 061357Z 19011KT 29/17 A2995 RMK A01 T02900167  RH  047%=      5-min Rain = 0
KTR1 061358Z 18014KT 29/17 A2995 RMK A01 T02900166  RH  047%=      5-min Rain = 0
KTR1 061359Z 19013KT 29/17 A2995 RMK A01 T02890165  RH  047%=      5-min Rain = 0
KTR1 061400Z 20015KT 29/17 A2995 RMK A01 T02880165  RH  047%=      5-min Rain = 0
KTR1 061401Z 20012KT 29/17 A2995 RMK A01 T02870165  RH  048%=      5-min Rain = 0
KTR1 061402Z 19012KT 29/17 A2995 RMK A01 T02860166  RH  048%=      5-min Rain = 0
KTR1 061403Z 19010KT 29/17 A2995 RMK A01 T02860166  RH  048%=      5-min Rain = 0
KTR1 061404Z 19010KT 29/17 A2995 RMK A01 T02860166  RH  048%=      5-min Rain = 0
KTR1 061405Z 20012KT 29/17 A2995 RMK A01 T02870166  RH  048%=      5-min Rain = 0
KTR1 061406Z 19014KT 29/17 A2995 RMK A01 T02870166  RH  048%=      5-min Rain = 0
KTR1 061407Z 19012KT 29/17 A2995 RMK A01 T02870166  RH  048%=      5-min Rain = 0
KTR1 061408Z 19012KT 29/17 A2995 RMK A01 T02870166  RH  048%=      5-min Rain = 0
KTR1 061409Z 19013KT 29/17 A2995 RMK A01 T02880166  RH  048%=      5-min Rain = 0
KTR1 061410Z 19011KT 29/17 A2995 RMK A01 T02900168  RH  048%=      5-min Rain = 0
KTR1 061411Z 20010KT 29/17 A2995 RMK A01 T02920168  RH  047%=      5-min Rain = 0
KTR1 061412Z 20013KT 29/17 A2995 RMK A01 T02940167  RH  047%=      5-min Rain = 0
KTR1 061413Z 18012KT 29/17 A2995 RMK A01 T02940167  RH  046%=      5-min Rain = 0
KTR1 061414Z 18012KT 29/17 A2995 RMK A01 T02940167  RH  046%=      5-min Rain = 0
KTR1 061415Z 19011KT 29/17 A2995 RMK A01 T02940167  RH  046%=      5-min Rain = 0
KTR1 061416Z 20011KT 30/17 A2995 RMK A01 T02960169  RH  046%=      5-min Rain = 0
KTR1 061417Z 20013KT 30/17 A2995 RMK A01 T02980168  RH  045%=      5-min Rain = 0
KTR1 061418Z 19012KT 30/17 A2995 RMK A01 T02980168  RH  045%=      5-min Rain = 0
KTR1 061419Z 19011KT 30/17 A2995 RMK A01 T02980168  RH  045%=      5-min Rain = 0
KTR1 061420Z 19013KT 30/17 A2995 RMK A01 T02980168  RH  046%=      5-min Rain = 0
KTR1 061421Z 20010KT 30/17 A2995 RMK A01 T02990168  RH  045%=      5-min Rain = 0
KTR1 061422Z 18012KT 30/17 A2995 RMK A01 T03000168  RH  045%=      5-min Rain = 0
KTR1 061423Z 19013KT 30/17 A2995 RMK A01 T03020169  RH  045%=      5-min Rain = 0
KTR1 061424Z 19014KT 30/17 A2995 RMK A01 T03020168  RH  044%=      5-min Rain = 0
KTR1 061425Z 21014KT 30/17 A2995 RMK A01 T03020168  RH  045%=      5-min Rain = 0
KTR1 061426Z 21014KT 30/17 A2995 RMK A01 T03010168  RH  045%=      5-min Rain = 0
KTR1 061427Z 21011KT 30/17 A2995 RMK A01 T03020169  RH  045%=      5-min Rain = 0
KTR1 061428Z 20013KT 30/17 A2995 RMK A01 T03030169  RH  044%=      5-min Rain = 0
KTR1 061429Z 19012KT 30/17 A2996 RMK A01 T03030169  RH  044%=      5-min Rain = 0
KTR1 061430Z 20012KT 30/17 A2996 RMK A01 T03030169  RH  044%=      5-min Rain = 0
KTR1 061431Z 20013KT 31/17 A2996 RMK A01 T03050169  RH  044%=      5-min Rain = 0
KTR1 061432Z 20011KT 31/17 A2996 RMK A01 T03050170  RH  044%=      5-min Rain = 0
KTR1 061433Z 20012KT 31/17 A2996 RMK A01 T03060169  RH  044%=      5-min Rain = 0
KTR1 061434Z 19013KT 31/17 A2996 RMK A01 T03070169  RH  044%=      5-min Rain = 0
KTR1 061435Z 19015KT 31/17 A2996 RMK A01 T03060170  RH  044%=      5-min Rain = 0
KTR1 061436Z 19016KT 31/17 A2995 RMK A01 T03060170  RH  044%=      5-min Rain = 0
KTR1 061437Z 18014KT 31/17 A2995 RMK A01 T03060169  RH  044%=      5-min Rain = 0
KTR1 061438Z 20013KT 31/17 A2995 RMK A01 T03060169  RH  044%=      5-min Rain = 0
KTR1 061439Z 19014KT 31/17 A2995 RMK A01 T03060169  RH  044%=      5-min Rain = 0
KTR1 061440Z 19016KT 31/17 A2995 RMK A01 T03070170  RH  044%=      5-min Rain = 0
KTR1 061441Z 19013KT 31/17 A2995 RMK A01 T03070169  RH  044%=      5-min Rain = 0
KTR1 061442Z 20013G18KT 31/17 A2995 RMK A01 T03060170  RH  044%=      5-min Rain = 0
KTR1 061443Z 20012KT 31/17 A2996 RMK A01 T03050170  RH  044%=      5-min Rain = 0
KTR1 061444Z 19013KT 30/17 A2995 RMK A01 T03040169  RH  044%=      5-min Rain = 0
KTR1 061445Z 20014KT 30/17 A2995 RMK A01 T03040170  RH  045%=      5-min Rain = 0
KTR1 061446Z 20011KT 30/17 A2996 RMK A01 T03030169  RH  045%=      5-min Rain = 0
KTR1 061447Z 20013KT 30/17 A2996 RMK A01 T03030170  RH  045%=      5-min Rain = 0
KTR1 061448Z 20014KT 30/17 A2996 RMK A01 T03040170  RH  045%=      5-min Rain = 0
KTR1 061449Z 20014KT 31/17 A2996 RMK A01 T03050170  RH  044%=      5-min Rain = 0
KTR1 061450Z 21013KT 31/17 A2996 RMK A01 T03050171  RH  044%=      5-min Rain = 0
KTR1 061451Z 21014KT 31/17 A2996 RMK A01 T03060170  RH  044%=      5-min Rain = 0
KTR1 061452Z 21013KT 30/17 A2996 RMK A01 T03040170  RH  045%=      5-min Rain = 0
KTR1 061453Z 19013KT 30/17 A2996 RMK A01 T03030170  RH  045%=      5-min Rain = 0
KTR1 061454Z 19013KT 30/17 A2996 RMK A01 T03040170  RH  045%=      5-min Rain = 0
KTR1 061455Z 20014KT 31/17 A2996 RMK A01 T03050171  RH  044%=      5-min Rain = 0
KTR1 061456Z 21012KT 31/17 A2996 RMK A01 T03050170  RH  044%=      5-min Rain = 0
KTR1 061457Z 22013KT 30/17 A2996 RMK A01 T03040170  RH  045%=      5-min Rain = 0
KTR1 061458Z 20013KT 31/17 A2996 RMK A01 T03050171  RH  044%=      5-min Rain = 0
KTR1 061459Z 22013KT 31/17 A2996 RMK A01 T03060171  RH  044%=      5-min Rain = 0
KTR1 061500Z 20013KT 31/17 A2995 RMK A01 T03060171  RH  044%=      5-min Rain = 0
KTR1 061501Z 20014KT 31/17 A2995 RMK A01 T03060170  RH  044%=      5-min Rain = 0
KTR1 061502Z 20012KT 31/17 A2995 RMK A01 T03060170  RH  044%=      5-min Rain = 0
KTR1 061503Z 20013KT 31/17 A2995 RMK A01 T03070171  RH  044%=      5-min Rain = 0
KTR1 061504Z 20013KT 31/17 A2996 RMK A01 T03100172  RH  044%=      5-min Rain = 0
KTR1 061505Z 20014KT 31/17 A2996 RMK A01 T03130171  RH  043%=      5-min Rain = 0
KTR1 061506Z 20015KT 31/17 A2996 RMK A01 T03140171  RH  042%=      5-min Rain = 0
KTR1 061507Z 20014G19KT 31/17 A2995 RMK A01 T03130171  RH  043%=      5-min Rain = 0
KTR1 061508Z 20016KT 32/17 A2995 RMK A01 T03150171  RH  042%=      5-min Rain = 0
KTR1 061509Z 21016KT 31/17 A2995 RMK A01 T03140171  RH  042%=      5-min Rain = 0
KTR1 061510Z 21013KT 31/17 A2995 RMK A01 T03130171  RH  043%=      5-min Rain = 0
KTR1 061511Z 21012KT 32/17 A2995 RMK A01 T03150172  RH  042%=      5-min Rain = 0
KTR1 061512Z 22012KT 32/17 A2996 RMK A01 T03190173  RH  042%=      5-min Rain = 0
KTR1 061513Z 21012KT 32/17 A2996 RMK A01 T03210174  RH  041%=      5-min Rain = 0
KTR1 061514Z 22013KT 33/17 A2996 RMK A01 T03250173  RH  040%=      5-min Rain = 0
KTR1 061515Z 21014KT 33/17 A2996 RMK A01 T03260173  RH  040%=      5-min Rain = 0
KTR1 061516Z 20014KT 33/17 A2996 RMK A01 T03260171  RH  040%=      5-min Rain = 0
KTR1 061517Z 20015KT 32/17 A2996 RMK A01 T03230170  RH  040%=      5-min Rain = 0
KTR1 061518Z 20013KT 32/17 A2996 RMK A01 T03220170  RH  040%=      5-min Rain = 0
KTR1 061519Z 20012KT 32/17 A2996 RMK A01 T03220171  RH  041%=      5-min Rain = 0
KTR1 061520Z 20012KT 32/17 A2996 RMK A01 T03230170  RH  040%=      5-min Rain = 0
KTR1 061521Z 19013KT 32/17 A2996 RMK A01 T03240169  RH  040%=      5-min Rain = 0
KTR1 061522Z 20015KT 32/17 A2996 RMK A01 T03230170  RH  040%=      5-min Rain = 0
KTR1 061523Z 21013KT 32/17 A2996 RMK A01 T03230169  RH  040%=      5-min Rain = 0
KTR1 061524Z 22014KT 32/17 A2996 RMK A01 T03240168  RH  039%=      5-min Rain = 0
KTR1 061525Z 21014KT 33/17 A2996 RMK A01 T03260169  RH  039%=      5-min Rain = 0
KTR1 061526Z 20013KT 33/17 A2996 RMK A01 T03270169  RH  039%=      5-min Rain = 0
KTR1 061527Z 21011KT 33/17 A2996 RMK A01 T03290170  RH  039%=      5-min Rain = 0
KTR1 061528Z 21011KT 33/17 A2996 RMK A01 T03310170  RH  038%=      5-min Rain = 0
KTR1 061529Z 22012KT 33/17 A2996 RMK A01 T03300170  RH  038%=      5-min Rain = 0
KTR1 061530Z 22014KT 33/17 A2996 RMK A01 T03300167  RH  038%=      5-min Rain = 0
KTR1 061531Z 21013KT 33/17 A2996 RMK A01 T03280168  RH  038%=      5-min Rain = 0
KTR1 061532Z 22013KT 33/17 A2996 RMK A01 T03290168  RH  038%=      5-min Rain = 0
KTR1 061533Z 23011KT 33/17 A2996 RMK A01 T03300169  RH  038%=      5-min Rain = 0
KTR1 061534Z 24013KT 33/17 A2996 RMK A01 T03340167  RH  037%=      5-min Rain = 0
KTR1 061535Z 22011KT 33/17 A2996 RMK A01 T03320168  RH  038%=      5-min Rain = 0
KTR1 061536Z 21010KT 33/17 A2996 RMK A01 T03330170  RH  038%=      5-min Rain = 0
KTR1 061537Z 20011KT 33/17 A2996 RMK A01 T03340170  RH  038%=      5-min Rain = 0
KTR1 061538Z 21011KT 33/17 A2996 RMK A01 T03320170  RH  038%=      5-min Rain = 0
KTR1 061539Z 22010KT 33/17 A2996 RMK A01 T03310169  RH  038%=      5-min Rain = 0
KTR1 061540Z 21011KT 33/17 A2996 RMK A01 T03310168  RH  038%=      5-min Rain = 0
KTR1 061541Z 21013KT 33/17 A2996 RMK A01 T03310167  RH  038%=      5-min Rain = 0
KTR1 061542Z 20014KT 33/17 A2996 RMK A01 T03290167  RH  038%=      5-min Rain = 0
KTR1 061543Z 20014KT 33/17 A2996 RMK A01 T03280165  RH  038%=      5-min Rain = 0
KTR1 061544Z 20012KT 33/17 A2996 RMK A01 T03280167  RH  038%=      5-min Rain = 0
KTR1 061545Z 22013KT 33/17 A2996 RMK A01 T03290166  RH  038%=      5-min Rain = 0
KTR1 061546Z 22014KT 33/17 A2996 RMK A01 T03300167  RH  038%=      5-min Rain = 0
KTR1 061547Z 21014KT 33/17 A2996 RMK A01 T03310167  RH  037%=      5-min Rain = 0
KTR1 061548Z 22014KT 33/17 A2996 RMK A01 T03310167  RH  037%=      5-min Rain = 0
KTR1 061549Z 20013KT 33/17 A2996 RMK A01 T03330168  RH  037%=      5-min Rain = 0
KTR1 061550Z 19013KT 34/17 A2996 RMK A01 T03370168  RH  037%=      5-min Rain = 0
KTR1 061551Z 20012KT 34/17 A2996 RMK A01 T03390169  RH  036%=      5-min Rain = 0
KTR1 061552Z 19013KT 34/17 A2996 RMK A01 T03400167  RH  036%=      5-min Rain = 0
KTR1 061553Z 20013KT 34/17 A2996 RMK A01 T03390168  RH  036%=      5-min Rain = 0
KTR1 061554Z 21014KT 34/17 A2996 RMK A01 T03390168  RH  036%=      5-min Rain = 0
KTR1 061555Z 21014KT 34/17 A2996 RMK A01 T03390167  RH  036%=      5-min Rain = 0
KTR1 061556Z 22010KT 34/17 A2996 RMK A01 T03370166  RH  036%=      5-min Rain = 0
KTR1 061557Z 23011KT 34/17 A2996 RMK A01 T03380168  RH  036%=      5-min Rain = 0
KTR1 061558Z 20013KT 34/17 A2996 RMK A01 T03380169  RH  037%=      5-min Rain = 0
KTR1 061559Z 21014KT 34/17 A2996 RMK A01 T03380168  RH  036%=      5-min Rain = 0
KTR1 061600Z 19013KT 34/17 A2996 RMK A01 T03350166  RH  037%=      5-min Rain = 0
KTR1 061601Z 19011KT 33/17 A2996 RMK A01 T03300165  RH  037%=      5-min Rain = 0
KTR1 061602Z 20011KT 33/17 A2996 RMK A01 T03300167  RH  038%=      5-min Rain = 0
KTR1 061603Z 21014KT 34/17 A2996 RMK A01 T03350168  RH  037%=      5-min Rain = 0
KTR1 061604Z 20012KT 34/17 A2996 RMK A01 T03350168  RH  037%=      5-min Rain = 0
KTR1 061605Z 21012KT 34/17 A2996 RMK A01 T03350168  RH  037%=      5-min Rain = 0
KTR1 061606Z 22013KT 34/17 A2996 RMK A01 T03350167  RH  037%=      5-min Rain = 0
KTR1 061607Z 22011KT 34/17 A2996 RMK A01 T03350167  RH  037%=      5-min Rain = 0
KTR1 061608Z 20013KT 34/17 A2996 RMK A01 T03350168  RH  037%=      5-min Rain = 0
KTR1 061609Z 19013KT 33/17 A2996 RMK A01 T03330166  RH  037%=      5-min Rain = 0
KTR1 061610Z 19013KT 33/17 A2996 RMK A01 T03340165  RH  037%=      5-min Rain = 0
KTR1 061611Z 18012KT 34/17 A2996 RMK A01 T03360166  RH  036%=      5-min Rain = 0
KTR1 061612Z 18013KT 34/17 A2996 RMK A01 T03380166  RH  036%=      5-min Rain = 0
KTR1 061613Z 18013KT 34/17 A2996 RMK A01 T03390166  RH  036%=      5-min Rain = 0
KTR1 061614Z 19013KT 34/17 A2996 RMK A01 T03370166  RH  036%=      5-min Rain = 0
KTR1 061615Z 19010KT 34/17 A2996 RMK A01 T03380167  RH  036%=      5-min Rain = 0
KTR1 061616Z 21014KT 34/17 A2996 RMK A01 T03390167  RH  036%=      5-min Rain = 0
KTR1 061617Z 19013KT 34/17 A2996 RMK A01 T03400165  RH  035%=      5-min Rain = 0
KTR1 061618Z 19014KT 34/16 A2996 RMK A01 T03390164  RH  035%=      5-min Rain = 0
KTR1 061619Z 19014G19KT 34/16 A2996 RMK A01 T03380164  RH  035%=      5-min Rain = 0
KTR1 061620Z 18013KT 34/16 A2996 RMK A01 T03390164  RH  035%=      5-min Rain = 0
KTR1 061621Z 19016KT 34/16 A2996 RMK A01 T03410163  RH  035%=      5-min Rain = 0
KTR1 061622Z 18016KT 34/16 A2996 RMK A01 T03410162  RH  034%=      5-min Rain = 0
KTR1 061623Z 20015G20KT 34/16 A2996 RMK A01 T03390161  RH  035%=      5-min Rain = 0
KTR1 061624Z 20013KT 34/16 A2996 RMK A01 T03400162  RH  035%=      5-min Rain = 0
KTR1 061625Z 20011KT 34/16 A2996 RMK A01 T03420161  RH  034%=      5-min Rain = 0
KTR1 061626Z 20011KT 34/16 A2996 RMK A01 T03430163  RH  034%=      5-min Rain = 0
KTR1 061627Z 20014KT 35/17 A2996 RMK A01 T03450165  RH  034%=      5-min Rain = 0
KTR1 061628Z 19012KT 35/17 A2996 RMK A01 T03460165  RH  034%=      5-min Rain = 0
KTR1 061629Z 20010KT 34/17 A2996 RMK A01 T03440165  RH  034%=      5-min Rain = 0
KTR1 061630Z 20009KT 34/17 A2996 RMK A01 T03440166  RH  035%=      5-min Rain = 0
KTR1 061631Z 19011KT 35/16 A2996 RMK A01 T03460164  RH  034%=      5-min Rain = 0
KTR1 061632Z 19011KT 34/16 A2996 RMK A01 T03440164  RH  034%=      5-min Rain = 0
KTR1 061633Z 18012G17KT 35/16 A2996 RMK A01 T03450164  RH  034%=      5-min Rain = 0
KTR1 061634Z 19011KT 35/16 A2996 RMK A01 T03450163  RH  034%=      5-min Rain = 0
KTR1 061635Z 22007KT 34/16 A2996 RMK A01 T03430164  RH  034%=      5-min Rain = 0
KTR1 061636Z 23008KT 34/17 A2996 RMK A01 T03440165  RH  035%=      5-min Rain = 0
KTR1 061637Z 20011G17KT 35/17 A2996 RMK A01 T03450165  RH  034%=      5-min Rain = 0
KTR1 061638Z 18015KT 35/17 A2996 RMK A01 T03460165  RH  034%=      5-min Rain = 0
KTR1 061639Z 19014KT 35/17 A2996 RMK A01 T03490165  RH  034%=      5-min Rain = 0
KTR1 061640Z 20012KT 35/17 A2996 RMK A01 T03480166  RH  034%=      5-min Rain = 0
KTR1 061641Z 20011KT 35/17 A2996 RMK A01 T03480165  RH  034%=      5-min Rain = 0
KTR1 061642Z 20009KT 35/16 A2996 RMK A01 T03460164  RH  034%=      5-min Rain = 0
KTR1 061643Z 21007KT 34/17 A2996 RMK A01 T03420165  RH  035%=      5-min Rain = 0
KTR1 061644Z 16010KT 34/17 A2996 RMK A01 T03420165  RH  035%=      5-min Rain = 0
KTR1 061645Z 20014KT 35/17 A2996 RMK A01 T03470167  RH  034%=      5-min Rain = 0
KTR1 061646Z 20011KT 35/17 A2996 RMK A01 T03520166  RH  033%=      5-min Rain = 0
KTR1 061647Z 18011KT 35/16 A2996 RMK A01 T03490164  RH  033%=      5-min Rain = 0
KTR1 061648Z 18014KT 35/16 A2996 RMK A01 T03460163  RH  034%=      5-min Rain = 0
KTR1 061649Z 18014KT 35/16 A2996 RMK A01 T03470162  RH  033%=      5-min Rain = 0
KTR1 061650Z 21013KT 35/16 A2996 RMK A01 T03490163  RH  033%=      5-min Rain = 0
KTR1 061651Z 21012G17KT 35/16 A2996 RMK A01 T03480164  RH  033%=      5-min Rain = 0
KTR1 061652Z 21013KT 35/17 A2996 RMK A01 T03500165  RH  033%=      5-min Rain = 0
KTR1 061653Z 21014KT 35/17 A2996 RMK A01 T03510165  RH  033%=      5-min Rain = 0
KTR1 061654Z 20011KT 35/16 A2996 RMK A01 T03490164  RH  033%=      5-min Rain = 0
KTR1 061655Z 21011KT 35/16 A2996 RMK A01 T03460164  RH  034%=      5-min Rain = 0
KTR1 061656Z 21012KT 35/16 A2996 RMK A01 T03450164  RH  034%=      5-min Rain = 0
KTR1 061657Z 22011KT 34/16 A2996 RMK A01 T03440164  RH  034%=      5-min Rain = 0
KTR1 061658Z 22012KT 34/16 A2996 RMK A01 T03430164  RH  034%=      5-min Rain = 0
KTR1 061659Z 21011KT 34/17 A2996 RMK A01 T03430165  RH  035%=      5-min Rain = 0
KTR1 061700Z 20009KT 34/17 A2996 RMK A01 T03430165  RH  035%=      5-min Rain = 0
KTR1 061701Z 19012KT 34/16 A2996 RMK A01 T03430164  RH  034%=      5-min Rain = 0
KTR1 061702Z 21011KT 35/16 A2996 RMK A01 T03450164  RH  034%=      5-min Rain = 0
KTR1 061703Z 22008KT 35/16 A2996 RMK A01 T03460163  RH  034%=      5-min Rain = 0
KTR1 061704Z 21013KT 35/16 A2996 RMK A01 T03460163  RH  033%=      5-min Rain = 0
KTR1 061705Z 21015KT 35/16 A2996 RMK A01 T03490160  RH  032%=      5-min Rain = 0
KTR1 061706Z 22016KT 35/16 A2996 RMK A01 T03490159  RH  032%=      5-min Rain = 0
KTR1 061707Z 21014KT 35/16 A2996 RMK A01 T03500157  RH  032%=      5-min Rain = 0
KTR1 061708Z 21013KT 35/16 A2996 RMK A01 T03520158  RH  031%=      5-min Rain = 0
KTR1 061709Z 20012KT 35/16 A2996 RMK A01 T03510161  RH  032%=      5-min Rain = 0
KTR1 061710Z 21009KT 35/16 A2996 RMK A01 T03520162  RH  032%=      5-min Rain = 0
KTR1 061711Z 22009KT 35/16 A2996 RMK A01 T03540162  RH  032%=      5-min Rain = 0
KTR1 061712Z 23008KT 35/16 A2996 RMK A01 T03500159  RH  032%=      5-min Rain = 0
KTR1 061713Z 22008KT 35/16 A2996 RMK A01 T03470159  RH  033%=      5-min Rain = 0
KTR1 061714Z 21011KT 35/16 A2996 RMK A01 T03470160  RH  033%=      5-min Rain = 0
KTR1 061715Z 20012KT 35/16 A2996 RMK A01 T03480162  RH  033%=      5-min Rain = 0
KTR1 061716Z 21009KT 35/16 A2996 RMK A01 T03480162  RH  033%=      5-min Rain = 0
KTR1 061717Z 19006KT 35/16 A2996 RMK A01 T03470162  RH  033%=      5-min Rain = 0
KTR1 061718Z 20005KT 35/16 A2996 RMK A01 T03470163  RH  033%=      5-min Rain = 0
KTR1 061719Z 19010KT 35/16 A2996 RMK A01 T03500163  RH  033%=      5-min Rain = 0
KTR1 061720Z 20012KT 35/16 A2996 RMK A01 T03520163  RH  033%=      5-min Rain = 0
KTR1 061721Z 19014KT 35/16 A2996 RMK A01 T03500162  RH  033%=      5-min Rain = 0
KTR1 061722Z 18013G18KT 35/16 A2996 RMK A01 T03490163  RH  033%=      5-min Rain = 0
KTR1 061723Z 19015KT 35/16 A2996 RMK A01 T03500164  RH  033%=      5-min Rain = 0
KTR1 061724Z 20011KT 35/17 A2996 RMK A01 T03500165  RH  033%=      5-min Rain = 0
KTR1 061725Z 19010KT 35/17 A2996 RMK A01 T03500165  RH  033%=      5-min Rain = 0
KTR1 061726Z 18011KT 35/17 A2996 RMK A01 T03500165  RH  033%=      5-min Rain = 0
KTR1 061727Z 19010KT 35/16 A2996 RMK A01 T03500164  RH  033%=      5-min Rain = 0
KTR1 061728Z 17011KT 35/16 A2996 RMK A01 T03520163  RH  033%=      5-min Rain = 0
KTR1 061729Z 18008KT 35/16 A2996 RMK A01 T03500162  RH  033%=      5-min Rain = 0
KTR1 061730Z 18010KT 35/16 A2995 RMK A01 T03490163  RH  033%=      5-min Rain = 0
KTR1 061731Z 19011KT 35/16 A2996 RMK A01 T03490163  RH  033%=      5-min Rain = 0
KTR1 061732Z 18007KT 35/16 A2996 RMK A01 T03500163  RH  033%=      5-min Rain = 0
KTR1 061733Z 18006KT 35/16 A2996 RMK A01 T03490163  RH  033%=      5-min Rain = 0
KTR1 061734Z 17007KT 35/16 A2996 RMK A01 T03480163  RH  033%=      5-min Rain = 0
KTR1 061735Z 19010KT 35/16 A2996 RMK A01 T03470163  RH  033%=      5-min Rain = 0
KTR1 061736Z 18012KT 35/16 A2996 RMK A01 T03460162  RH  034%=      5-min Rain = 0
KTR1 061737Z 17011KT 35/16 A2996 RMK A01 T03480164  RH  034%=      5-min Rain = 0
KTR1 061738Z 17011KT 35/17 A2996 RMK A01 T03520165  RH  033%=      5-min Rain = 0
KTR1 061739Z 17009KT 35/17 A2996 RMK A01 T03520165  RH  033%=      5-min Rain = 0
KTR1 061740Z 19008KT 35/16 A2996 RMK A01 T03510164  RH  033%=      5-min Rain = 0
KTR1 061741Z 18006KT 35/16 A2995 RMK A01 T03530164  RH  033%=      5-min Rain = 0
KTR1 061742Z 19009KT 36/17 A2995 RMK A01 T03560165  RH  032%=      5-min Rain = 0
KTR1 061743Z 18012KT 36/17 A2995 RMK A01 T03620166  RH  031%=      5-min Rain = 0
KTR1 061744Z 19011KT 36/17 A2995 RMK A01 T03630166  RH  031%=      5-min Rain = 0
KTR1 061745Z 18010KT 36/17 A2995 RMK A01 T03640167  RH  031%=      5-min Rain = 0
KTR1 061746Z 19011KT 36/17 A2995 RMK A01 T03630166  RH  031%=      5-min Rain = 0
KTR1 061747Z 19010KT 36/17 A2995 RMK A01 T03620167  RH  032%=      5-min Rain = 0
KTR1 061748Z 18010KT 37/17 A2995 RMK A01 T03650169  RH  031%=      5-min Rain = 0
KTR1 061749Z 19011KT 37/17 A2995 RMK A01 T03670168  RH  031%=      5-min Rain = 0
KTR1 061750Z 18012KT 36/17 A2995 RMK A01 T03640169  RH  032%=      5-min Rain = 0
KTR1 061751Z 19013KT 36/17 A2995 RMK A01 T03630165  RH  031%=      5-min Rain = 0
KTR1 061752Z 16011KT 36/17 A2995 RMK A01 T03630165  RH  031%=      5-min Rain = 0
KTR1 061753Z 17009KT 36/17 A2995 RMK A01 T03630165  RH  031%=      5-min Rain = 0
KTR1 061754Z 16010KT 36/17 A2995 RMK A01 T03640165  RH  031%=      5-min Rain = 0
KTR1 061755Z 17012KT 37/17 A2995 RMK A01 T03650165  RH  031%=      5-min Rain = 0
KTR1 061756Z 17011KT 36/16 A2995 RMK A01 T03610164  RH  031%=      5-min Rain = 0
KTR1 061757Z 17010KT 36/17 A2995 RMK A01 T03560168  RH  033%=      5-min Rain = 0
KTR1 061758Z 16013KT 36/17 A2995 RMK A01 T03580172  RH  033%=      5-min Rain = 0
KTR1 061759Z 16014KT 36/17 A2995 RMK A01 T03600171  RH  033%=      5-min Rain = 0
KTR1 061800Z 17013KT 36/17 A2995 RMK A01 T03600171  RH  033%=      5-min Rain = 0
KTR1 061801Z 16012KT 36/17 A2995 RMK A01 T03620167  RH  032%=      5-min Rain = 0
KTR1 061802Z 15011KT 36/17 A2995 RMK A01 T03600170  RH  033%=      5-min Rain = 0
KTR1 061803Z 14012KT 36/17 A2995 RMK A01 T03590170  RH  033%=      5-min Rain = 0
KTR1 061804Z 15011KT 36/17 A2995 RMK A01 T03590168  RH  032%=      5-min Rain = 0
KTR1 061805Z 14010KT 36/17 A2995 RMK A01 T03590170  RH  033%=      5-min Rain = 0
KTR1 061806Z 15013KT 36/17 A2995 RMK A01 T03620171  RH  032%=      5-min Rain = 0
KTR1 061807Z 15013KT 37/17 A2995 RMK A01 T03660170  RH  031%=      5-min Rain = 0
KTR1 061808Z 15015KT 37/17 A2995 RMK A01 T03690169  RH  031%=      5-min Rain = 0
KTR1 061809Z 14014KT 37/17 A2995 RMK A01 T03650168  RH  031%=      5-min Rain = 0
KTR1 061810Z 16014KT 36/17 A2995 RMK A01 T03640168  RH  031%=      5-min Rain = 0
KTR1 061811Z 15011G16KT 36/17 A2995 RMK A01 T03640168  RH  031%=      5-min Rain = 0
KTR1 061812Z 18010G16KT 37/17 A2995 RMK A01 T03650168  RH  031%=      5-min Rain = 0
KTR1 061813Z 17015KT 37/17 A2995 RMK A01 T03670167  RH  031%=      5-min Rain = 0
KTR1 061814Z 17014KT 37/17 A2995 RMK A01 T03670167  RH  031%=      5-min Rain = 0
KTR1 061815Z 15010KT 37/17 A2995 RMK A01 T03650165  RH  031%=      5-min Rain = 0
KTR1 061816Z 17011KT 36/17 A2995 RMK A01 T03610166  RH  031%=      5-min Rain = 0
KTR1 061817Z 15012KT 36/17 A2995 RMK A01 T03620166  RH  031%=      5-min Rain = 0
KTR1 061818Z 15012KT 36/17 A2995 RMK A01 T03640168  RH  031%=      5-min Rain = 0
KTR1 061819Z 16015KT 37/17 A2995 RMK A01 T03670169  RH  031%=      5-min Rain = 0
KTR1 061820Z 18013KT 37/17 A2995 RMK A01 T03700167  RH  030%=      5-min Rain = 0
KTR1 061821Z 19012KT 37/17 A2995 RMK A01 T03680168  RH  031%=      5-min Rain = 0
KTR1 061822Z 16013KT 37/17 A2995 RMK A01 T03680168  RH  031%=      5-min Rain = 0
KTR1 061823Z 15014KT 37/17 A2995 RMK A01 T03650166  RH  031%=      5-min Rain = 0
KTR1 061824Z 16013KT 36/17 A2995 RMK A01 T03610167  RH  032%=      5-min Rain = 0
KTR1 061825Z 16013KT 36/17 A2995 RMK A01 T03600167  RH  032%=      5-min Rain = 0
KTR1 061826Z 15012KT 36/17 A2994 RMK A01 T03590166  RH  032%=      5-min Rain = 0
KTR1 061827Z 14012KT 36/17 A2994 RMK A01 T03560165  RH  032%=      5-min Rain = 0
KTR1 061828Z 16012G17KT 35/17 A2994 RMK A01 T03530165  RH  033%=      5-min Rain = 0
KTR1 061829Z 16015G20KT 35/17 A2994 RMK A01 T03520165  RH  033%=      5-min Rain = 0
KTR1 061830Z 17016KT 35/17 A2994 RMK A01 T03500165  RH  033%=      5-min Rain = 0
KTR1 061831Z 20014KT 35/17 A2994 RMK A01 T03510165  RH  033%=      5-min Rain = 0
KTR1 061832Z 19010KT 35/17 A2994 RMK A01 T03500166  RH  033%=      5-min Rain = 0
KTR1 061833Z 16012KT 35/17 A2994 RMK A01 T03490165  RH  034%=      5-min Rain = 0
KTR1 061834Z 15010KT 35/16 A2994 RMK A01 T03470164  RH  034%=      5-min Rain = 0
KTR1 061835Z 15011KT 34/16 A2994 RMK A01 T03440164  RH  034%=      5-min Rain = 0
KTR1 061836Z 16011KT 34/16 A2994 RMK A01 T03440164  RH  034%=      5-min Rain = 0
KTR1 061837Z 16010KT 34/16 A2994 RMK A01 T03440164  RH  034%=      5-min Rain = 0
KTR1 061838Z 14011KT 34/17 A2994 RMK A01 T03440165  RH  034%=      5-min Rain = 0
KTR1 061839Z 17011KT 35/17 A2994 RMK A01 T03480165  RH  034%=      5-min Rain = 0
KTR1 061840Z 17014KT 36/17 A2994 RMK A01 T03550165  RH  032%=      5-min Rain = 0
KTR1 061841Z 17012KT 36/16 A2994 RMK A01 T03560164  RH  032%=      5-min Rain = 0
KTR1 061842Z 16011KT 36/16 A2994 RMK A01 T03560164  RH  032%=      5-min Rain = 0
KTR1 061843Z 16010KT 36/17 A2994 RMK A01 T03580165  RH  032%=      5-min Rain = 0
KTR1 061844Z 16011KT 36/17 A2994 RMK A01 T03610165  RH  031%=      5-min Rain = 0
KTR1 061845Z 16011KT 36/16 A2994 RMK A01 T03610164  RH  031%=      5-min Rain = 0
KTR1 061846Z 16010KT 36/16 A2994 RMK A01 T03600162  RH  031%=      5-min Rain = 0
KTR1 061847Z 17009KT 36/16 A2994 RMK A01 T03610162  RH  031%=      5-min Rain = 0
KTR1 061848Z 16013KT 37/16 A2994 RMK A01 T03650163  RH  030%=      5-min Rain = 0
KTR1 061849Z 15015KT 37/16 A2994 RMK A01 T03670160  RH  030%=      5-min Rain = 0
KTR1 061850Z 15011KT 37/16 A2994 RMK A01 T03660159  RH  029%=      5-min Rain = 0
KTR1 061851Z 15011G16KT 37/16 A2994 RMK A01 T03660160  RH  030%=      5-min Rain = 0
KTR1 061852Z 15016KT 37/16 A2994 RMK A01 T03670158  RH  029%=      5-min Rain = 0
KTR1 061853Z 16017KT 37/16 A2994 RMK A01 T03700158  RH  029%=      5-min Rain = 0
KTR1 061854Z 17014KT 37/16 A2994 RMK A01 T03710158  RH  029%=      5-min Rain = 0
KTR1 061855Z 19010KT 37/16 A2994 RMK A01 T03690160  RH  029%=      5-min Rain = 0
KTR1 061856Z 18011KT 37/16 A2994 RMK A01 T03670157  RH  029%=      5-min Rain = 0
KTR1 061857Z 18013KT 37/16 A2994 RMK A01 T03660157  RH  029%=      5-min Rain = 0
KTR1 061858Z 17010KT 37/16 A2994 RMK A01 T03680159  RH  029%=      5-min Rain = 0
KTR1 061859Z 18013KT 37/16 A2994 RMK A01 T03740160  RH  028%=      5-min Rain = 0
KTR1 061900Z 19014KT 38/16 A2994 RMK A01 T03810163  RH  028%=      5-min Rain = 0
KTR1 061901Z 16013KT 39/16 A2994 RMK A01 T03850160  RH  027%=      5-min Rain = 0
KTR1 061902Z 16009KT 38/16 A2994 RMK A01 T03790159  RH  027%=      5-min Rain = 0
KTR1 061903Z 16007KT 38/16 A2994 RMK A01 T03770159  RH  028%=      5-min Rain = 0
KTR1 061904Z 17011KT 38/16 A2993 RMK A01 T03760160  RH  028%=      5-min Rain = 0
KTR1 061905Z 17010KT 38/16 A2993 RMK A01 T03760158  RH  028%=      5-min Rain = 0
KTR1 061906Z 18015KT 37/16 A2993 RMK A01 T03740159  RH  028%=      5-min Rain = 0
KTR1 061907Z 18012G17KT 37/16 A2993 RMK A01 T03740157  RH  028%=      5-min Rain = 0
KTR1 061908Z 20010KT 37/16 A2993 RMK A01 T03710156  RH  028%=      5-min Rain = 0
KTR1 061909Z 21011KT 37/15 A2993 RMK A01 T03700152  RH  027%=      5-min Rain = 0
KTR1 061910Z 19011KT 37/15 A2993 RMK A01 T03710152  RH  027%=      5-min Rain = 0
KTR1 061911Z 16014KT 37/16 A2993 RMK A01 T03700155  RH  028%=      5-min Rain = 0
KTR1 061912Z 17011KT 37/16 A2993 RMK A01 T03680157  RH  029%=      5-min Rain = 0
KTR1 061913Z 18011KT 37/16 A2993 RMK A01 T03650157  RH  029%=      5-min Rain = 0
KTR1 061914Z 20011KT 37/16 A2993 RMK A01 T03660156  RH  029%=      5-min Rain = 0
KTR1 061915Z 20017KT 37/16 A2993 RMK A01 T03670155  RH  028%=      5-min Rain = 0
KTR1 061916Z 20013KT 37/15 A2993 RMK A01 T03670151  RH  028%=      5-min Rain = 0
KTR1 061917Z 20010KT 37/15 A2993 RMK A01 T03650152  RH  028%=      5-min Rain = 0
KTR1 061918Z 18009KT 36/15 A2993 RMK A01 T03630154  RH  029%=      5-min Rain = 0
KTR1 061919Z 18014KT 37/16 A2993 RMK A01 T03660155  RH  029%=      5-min Rain = 0
KTR1 061920Z 18012KT 37/16 A2993 RMK A01 T03650156  RH  029%=      5-min Rain = 0
KTR1 061921Z 19012KT 36/16 A2993 RMK A01 T03620155  RH  029%=      5-min Rain = 0
KTR1 061922Z 19012KT 36/16 A2993 RMK A01 T03610156  RH  030%=      5-min Rain = 0
KTR1 061923Z 17010KT 36/16 A2993 RMK A01 T03610157  RH  030%=      5-min Rain = 0
KTR1 061924Z 17008KT 36/16 A2993 RMK A01 T03620156  RH  030%=      5-min Rain = 0
KTR1 061925Z 19011KT 36/15 A2993 RMK A01 T03630154  RH  029%=      5-min Rain = 0
KTR1 061926Z 19011KT 36/15 A2993 RMK A01 T03630153  RH  029%=      5-min Rain = 0
KTR1 061927Z 21012KT 36/16 A2993 RMK A01 T03620155  RH  029%=      5-min Rain = 0
KTR1 061928Z 20011KT 36/16 A2993 RMK A01 T03610155  RH  029%=      5-min Rain = 0
KTR1 061929Z 20009KT 36/16 A2993 RMK A01 T03620156  RH  029%=      5-min Rain = 0
KTR1 061930Z 18013G18KT 36/16 A2993 RMK A01 T03630156  RH  029%=      5-min Rain = 0
KTR1 061931Z 18016KT 37/15 A2993 RMK A01 T03650154  RH  029%=      5-min Rain = 0
KTR1 061932Z 18014KT 36/15 A2993 RMK A01 T03620154  RH  029%=      5-min Rain = 0
KTR1 061933Z 17015KT 36/16 A2993 RMK A01 T03610155  RH  029%=      5-min Rain = 0
KTR1 061934Z 18015KT 36/16 A2993 RMK A01 T03610156  RH  030%=      5-min Rain = 0
KTR1 061935Z 18012KT 36/16 A2993 RMK A01 T03580155  RH  030%=      5-min Rain = 0
KTR1 061936Z 19010KT 36/16 A2993 RMK A01 T03570156  RH  030%=      5-min Rain = 0
KTR1 061937Z 20010KT 36/16 A2993 RMK A01 T03580157  RH  030%=      5-min Rain = 0
KTR1 061938Z 18011KT 36/16 A2993 RMK A01 T03590158  RH  030%=      5-min Rain = 0
KTR1 061939Z 16012G18KT 36/16 A2993 RMK A01 T03590157  RH  030%=      5-min Rain = 0
KTR1 061940Z 17015KT 36/16 A2993 RMK A01 T03580158  RH  031%=      5-min Rain = 0
KTR1 061941Z 17014KT 36/16 A2993 RMK A01 T03580158  RH  030%=      5-min Rain = 0
KTR1 061942Z 17013KT 36/16 A2993 RMK A01 T03590158  RH  030%=      5-min Rain = 0
KTR1 061943Z 16012KT 36/16 A2993 RMK A01 T03590158  RH  030%=      5-min Rain = 0
KTR1 061944Z 17011KT 36/16 A2993 RMK A01 T03580158  RH  030%=      5-min Rain = 0
KTR1 061945Z 18009KT 36/16 A2993 RMK A01 T03580158  RH  031%=      5-min Rain = 0
KTR1 061946Z 19012G17KT 36/16 A2993 RMK A01 T03570159  RH  031%=      5-min Rain = 0
KTR1 061947Z 19014KT 36/16 A2993 RMK A01 T03600159  RH  030%=      5-min Rain = 0
KTR1 061948Z 19011KT 36/16 A2993 RMK A01 T03610159  RH  030%=      5-min Rain = 0
KTR1 061949Z 19010KT 36/16 A2993 RMK A01 T03600158  RH  030%=      5-min Rain = 0
KTR1 061950Z 20012KT 36/16 A2993 RMK A01 T03600160  RH  031%=      5-min Rain = 0
KTR1 061951Z 20012KT 36/16 A2993 RMK A01 T03600161  RH  031%=      5-min Rain = 0
KTR1 061952Z 18015KT 36/16 A2993 RMK A01 T03600162  RH  031%=      5-min Rain = 0
KTR1 061953Z 18016KT 36/16 A2993 RMK A01 T03590162  RH  031%=      5-min Rain = 0
KTR1 061954Z 18012KT 36/16 A2993 RMK A01 T03590162  RH  031%=      5-min Rain = 0
KTR1 061955Z 18013KT 36/16 A2993 RMK A01 T03590162  RH  031%=      5-min Rain = 0
KTR1 061956Z 18011KT 36/16 A2993 RMK A01 T03600161  RH  031%=      5-min Rain = 0
KTR1 061957Z 18014KT 36/16 A2993 RMK A01 T03600161  RH  031%=      5-min Rain = 0
KTR1 061958Z 17012KT 36/16 A2993 RMK A01 T03590160  RH  031%=      5-min Rain = 0
KTR1 061959Z 20011KT 36/16 A2993 RMK A01 T03580161  RH  031%=      5-min Rain = 0
KTR1 062000Z 19010KT 36/16 A2993 RMK A01 T03590161  RH  031%=      5-min Rain = 0
KTR1 062001Z 18015KT 36/16 A2993 RMK A01 T03590161  RH  031%=      5-min Rain = 0
KTR1 062002Z 18014KT 36/16 A2993 RMK A01 T03600159  RH  031%=      5-min Rain = 0
KTR1 062003Z 17014KT 36/16 A2993 RMK A01 T03590159  RH  030%=      5-min Rain = 0
KTR1 062004Z 18011KT 36/16 A2993 RMK A01 T03570157  RH  031%=      5-min Rain = 0
KTR1 062005Z 17012KT 36/16 A2993 RMK A01 T03560157  RH  031%=      5-min Rain = 0
KTR1 062006Z 16013KT 36/16 A2993 RMK A01 T03550156  RH  031%=      5-min Rain = 0
KTR1 062007Z 16013KT 36/16 A2993 RMK A01 T03560155  RH  030%=      5-min Rain = 0
KTR1 062008Z 17009KT 36/16 A2993 RMK A01 T03560155  RH  030%=      5-min Rain = 0
KTR1 062009Z 16011KT 36/16 A2993 RMK A01 T03560156  RH  030%=      5-min Rain = 0
KTR1 062010Z 16012KT 36/16 A2993 RMK A01 T03580156  RH  030%=      5-min Rain = 0
KTR1 062011Z 18011KT 36/16 A2993 RMK A01 T03600157  RH  030%=      5-min Rain = 0
KTR1 062012Z 16013KT 36/16 A2993 RMK A01 T03610157  RH  030%=      5-min Rain = 0
KTR1 062013Z 16012KT 36/16 A2993 RMK A01 T03600156  RH  030%=      5-min Rain = 0
KTR1 062014Z 17014KT 36/16 A2993 RMK A01 T03590157  RH  030%=      5-min Rain = 0
KTR1 062015Z 16014KT 36/16 A2993 RMK A01 T03590158  RH  030%=      5-min Rain = 0
KTR1 062016Z 14013KT 36/16 A2992 RMK A01 T03590158  RH  030%=      5-min Rain = 0
KTR1 062017Z 15009KT 36/16 A2992 RMK A01 T03590159  RH  030%=      5-min Rain = 0
KTR1 062018Z 15012KT 36/16 A2992 RMK A01 T03590160  RH  031%=      5-min Rain = 0
KTR1 062019Z 16013KT 36/16 A2992 RMK A01 T03620163  RH  031%=      5-min Rain = 0
KTR1 062020Z 16014KT 36/16 A2992 RMK A01 T03630164  RH  031%=      5-min Rain = 0
KTR1 062021Z 15015KT 36/16 A2992 RMK A01 T03640161  RH  030%=      5-min Rain = 0
KTR1 062022Z 15014KT 36/16 A2992 RMK A01 T03640159  RH  030%=      5-min Rain = 0
KTR1 062023Z 15013KT 36/16 A2992 RMK A01 T03640159  RH  030%=      5-min Rain = 0
KTR1 062024Z 15016KT 37/16 A2992 RMK A01 T03660158  RH  029%=      5-min Rain = 0
KTR1 062025Z 15013KT 37/16 A2992 RMK A01 T03660157  RH  029%=      5-min Rain = 0
KTR1 062026Z 16013KT 36/16 A2992 RMK A01 T03640158  RH  029%=      5-min Rain = 0
KTR1 062027Z 16016KT 37/16 A2992 RMK A01 T03680158  RH  029%=      5-min Rain = 0
KTR1 062028Z 16015KT 37/16 A2992 RMK A01 T03680157  RH  029%=      5-min Rain = 0
KTR1 062029Z 16014KT 37/16 A2992 RMK A01 T03650157  RH  029%=      5-min Rain = 0
KTR1 062030Z 17014KT 37/16 A2992 RMK A01 T03650157  RH  029%=      5-min Rain = 0
KTR1 062031Z 18014KT 37/16 A2992 RMK A01 T03660156  RH  029%=      5-min Rain = 0
KTR1 062032Z 16018KT 37/16 A2992 RMK A01 T03670156  RH  029%=      5-min Rain = 0
KTR1 062033Z 16016KT 37/16 A2992 RMK A01 T03660156  RH  029%=      5-min Rain = 0
KTR1 062034Z 17015G20KT 37/16 A2992 RMK A01 T03690159  RH  029%=      5-min Rain = 0
KTR1 062035Z 17016KT 37/16 A2992 RMK A01 T03710158  RH  028%=      5-min Rain = 0
KTR1 062036Z 16017KT 37/16 A2992 RMK A01 T03700158  RH  028%=      5-min Rain = 0
KTR1 062037Z 16016KT 37/16 A2992 RMK A01 T03700158  RH  029%=      5-min Rain = 0
KTR1 062038Z 16017KT 37/16 A2992 RMK A01 T03720159  RH  028%=      5-min Rain = 0
KTR1 062039Z 17016KT 37/16 A2992 RMK A01 T03720159  RH  028%=      5-min Rain = 0
KTR1 062040Z 16017KT 37/16 A2992 RMK A01 T03690158  RH  029%=      5-min Rain = 0
KTR1 062041Z 16016KT 37/16 A2992 RMK A01 T03670158  RH  029%=      5-min Rain = 0
KTR1 062042Z 16014KT 37/16 A2992 RMK A01 T03660158  RH  029%=      5-min Rain = 0
KTR1 062043Z 14013KT 37/16 A2992 RMK A01 T03650158  RH  029%=      5-min Rain = 0
KTR1 062044Z 15014KT 37/16 A2992 RMK A01 T03660159  RH  029%=      5-min Rain = 0
KTR1 062045Z 15012KT 37/16 A2992 RMK A01 T03680160  RH  029%=      5-min Rain = 0
KTR1 062046Z 17014KT 37/16 A2992 RMK A01 T03690160  RH  029%=      5-min Rain = 0
KTR1 062047Z 16014KT 37/16 A2992 RMK A01 T03690160  RH  029%=      5-min Rain = 0
KTR1 062048Z 15016KT 37/16 A2992 RMK A01 T03690159  RH  029%=      5-min Rain = 0
KTR1 062049Z 17016KT 37/16 A2992 RMK A01 T03670158  RH  029%=      5-min Rain = 0
KTR1 062050Z 18013KT 36/16 A2992 RMK A01 T03640158  RH  029%=      5-min Rain = 0
KTR1 062051Z 18014KT 36/16 A2991 RMK A01 T03620159  RH  030%=      5-min Rain = 0
KTR1 062052Z 17016KT 36/16 A2991 RMK A01 T03630159  RH  030%=      5-min Rain = 0
KTR1 062053Z 17016KT 36/16 A2991 RMK A01 T03630160  RH  030%=      5-min Rain = 0
KTR1 062054Z 18015G20KT 36/16 A2991 RMK A01 T03640161  RH  030%=      5-min Rain = 0
KTR1 062055Z 17018KT 36/16 A2991 RMK A01 T03630161  RH  030%=      5-min Rain = 0
KTR1 062056Z 16015KT 36/16 A2991 RMK A01 T03630161  RH  030%=      5-min Rain = 0
KTR1 062057Z 15016KT 36/16 A2992 RMK A01 T03640161  RH  030%=      5-min Rain = 0
KTR1 062058Z 17017KT 37/16 A2991 RMK A01 T03650161  RH  030%=      5-min Rain = 0
KTR1 062059Z 16018KT 37/16 A2992 RMK A01 T03650161  RH  030%=      5-min Rain = 0
KTR1 062100Z 17014KT 37/16 A2991 RMK A01 T03650161  RH  030%=      5-min Rain = 0
KTR1 062101Z 17015KT 37/16 A2991 RMK A01 T03670161  RH  030%=      5-min Rain = 0
KTR1 062102Z 17012KT 37/16 A2991 RMK A01 T03660161  RH  030%=      5-min Rain = 0
KTR1 062103Z 16015KT 37/16 A2991 RMK A01 T03670161  RH  030%=      5-min Rain = 0
KTR1 062104Z 16017KT 37/16 A2991 RMK A01 T03670159  RH  029%=      5-min Rain = 0
KTR1 062105Z 16015KT 37/16 A2991 RMK A01 T03650158  RH  029%=      5-min Rain = 0
KTR1 062106Z 16015KT 37/16 A2991 RMK A01 T03650158  RH  029%=      5-min Rain = 0
KTR1 062107Z 15015KT 37/16 A2991 RMK A01 T03650159  RH  029%=      5-min Rain = 0
KTR1 062108Z 15014KT 37/16 A2991 RMK A01 T03680159  RH  029%=      5-min Rain = 0
KTR1 062109Z 13013KT 37/16 A2991 RMK A01 T03690160  RH  029%=      5-min Rain = 0
KTR1 062110Z 14014KT 37/16 A2991 RMK A01 T03700160  RH  029%=      5-min Rain = 0
KTR1 062111Z 16017KT 37/16 A2991 RMK A01 T03700161  RH  029%=      5-min Rain = 0
KTR1 062112Z 17016KT 37/16 A2991 RMK A01 T03700162  RH  029%=      5-min Rain = 0
KTR1 062113Z 16016KT 37/16 A2991 RMK A01 T03700162  RH  029%=      5-min Rain = 0
KTR1 062114Z 15017KT 37/16 A2991 RMK A01 T03700162  RH  029%=      5-min Rain = 0
KTR1 062115Z 15016KT 37/16 A2991 RMK A01 T03710163  RH  029%=      5-min Rain = 0
KTR1 062116Z 14015KT 37/16 A2991 RMK A01 T03720163  RH  029%=      5-min Rain = 0
KTR1 062117Z 14016KT 37/16 A2991 RMK A01 T03720163  RH  029%=      5-min Rain = 0
KTR1 062118Z 16015KT 37/16 A2991 RMK A01 T03730164  RH  029%=      5-min Rain = 0
KTR1 062119Z 16015KT 38/17 A2991 RMK A01 T03780166  RH  029%=      5-min Rain = 0
KTR1 062120Z 16016G21KT 38/17 A2991 RMK A01 T03830165  RH  028%=      5-min Rain = 0
KTR1 062121Z 16017KT 38/16 A2991 RMK A01 T03780162  RH  028%=      5-min Rain = 0
KTR1 062122Z 17018KT 38/16 A2991 RMK A01 T03760164  RH  029%=      5-min Rain = 0
KTR1 062123Z 16016KT 38/16 A2991 RMK A01 T03770164  RH  028%=      5-min Rain = 0
KTR1 062124Z 16016KT 38/16 A2991 RMK A01 T03760164  RH  029%=      5-min Rain = 0
KTR1 062125Z 17016G22KT 38/16 A2991 RMK A01 T03760164  RH  029%=      5-min Rain = 0
KTR1 062126Z 15015KT 38/17 A2991 RMK A01 T03780165  RH  029%=      5-min Rain = 0
KTR1 062127Z 17016KT 38/16 A2991 RMK A01 T03800164  RH  028%=      5-min Rain = 0
KTR1 062128Z 17014KT 38/16 A2991 RMK A01 T03800164  RH  028%=      5-min Rain = 0
KTR1 062129Z 19017G23KT 38/16 A2991 RMK A01 T03800162  RH  028%=      5-min Rain = 0
KTR1 062130Z 18014G20KT 38/16 A2991 RMK A01 T03780160  RH  028%=      5-min Rain = 0
KTR1 062131Z 15011KT 38/16 A2991 RMK A01 T03770161  RH  028%=      5-min Rain = 0
KTR1 062132Z 16013G18KT 38/16 A2991 RMK A01 T03790159  RH  027%=      5-min Rain = 0
KTR1 062133Z 16015KT 38/15 A2991 RMK A01 T03810153  RH  026%=      5-min Rain = 0
KTR1 062134Z 16016KT 38/15 A2991 RMK A01 T03790152  RH  026%=      5-min Rain = 0
KTR1 062135Z 15015KT 38/15 A2991 RMK A01 T03800153  RH  026%=      5-min Rain = 0
KTR1 062136Z 15013KT 38/15 A2991 RMK A01 T03780154  RH  027%=      5-min Rain = 0
KTR1 062137Z 15014KT 38/16 A2991 RMK A01 T03760155  RH  027%=      5-min Rain = 0
KTR1 062138Z 15015KT 38/16 A2991 RMK A01 T03780156  RH  027%=      5-min Rain = 0
KTR1 062139Z 15012KT 38/16 A2991 RMK A01 T03780156  RH  027%=      5-min Rain = 0
KTR1 062140Z 13012KT 38/16 A2991 RMK A01 T03760157  RH  027%=      5-min Rain = 0
KTR1 062141Z 15011KT 38/16 A299 RMK A01 T03770157  RH  027%=      5-min Rain = 0
KTR1 062142Z 16015KT 38/16 A299 RMK A01 T03790157  RH  027%=      5-min Rain = 0
KTR1 062143Z 16014KT 38/16 A299 RMK A01 T03810156  RH  027%=      5-min Rain = 0
KTR1 062144Z 16010KT 38/16 A299 RMK A01 T03780156  RH  027%=      5-min Rain = 0
KTR1 062145Z 16010KT 38/16 A299 RMK A01 T03780158  RH  027%=      5-min Rain = 0
KTR1 062146Z 17010KT 38/16 A299 RMK A01 T03770156  RH  027%=      5-min Rain = 0
KTR1 062147Z 17011KT 38/15 A299 RMK A01 T03770154  RH  027%=      5-min Rain = 0
KTR1 062148Z 16015G22KT 38/16 A299 RMK A01 T03820157  RH  027%=      5-min Rain = 0
KTR1 062149Z 19015KT 39/16 A299 RMK A01 T03850156  RH  026%=      5-min Rain = 0
KTR1 062150Z 20015KT 38/16 A299 RMK A01 T03800157  RH  027%=      5-min Rain = 0
KTR1 062151Z 21012KT 38/16 A299 RMK A01 T03780158  RH  027%=      5-min Rain = 0
KTR1 062152Z 20012KT 38/16 A299 RMK A01 T03790156  RH  027%=      5-min Rain = 0
KTR1 062153Z 18011G16KT 38/16 A299 RMK A01 T03780157  RH  027%=      5-min Rain = 0
KTR1 062154Z 17015KT 38/16 A299 RMK A01 T03770160  RH  028%=      5-min Rain = 0
KTR1 062155Z 17013G18KT 38/16 A299 RMK A01 T03750160  RH  028%=      5-min Rain = 0
KTR1 062156Z 17014KT 37/16 A299 RMK A01 T03740159  RH  028%=      5-min Rain = 0
KTR1 062157Z 19011KT 37/16 A299 RMK A01 T03730158  RH  028%=      5-min Rain = 0
KTR1 062158Z 17010KT 37/16 A299 RMK A01 T03700160  RH  029%=      5-min Rain = 0
KTR1 062159Z 15011KT 37/16 A299 RMK A01 T03720162  RH  029%=      5-min Rain = 0
KTR1 062200Z 14010KT 37/16 A299 RMK A01 T03710161  RH  029%=      5-min Rain = 0
KTR1 062201Z 14009KT 37/16 A299 RMK A01 T03680161  RH  029%=      5-min Rain = 0
KTR1 062202Z 19008KT 37/16 A299 RMK A01 T03670160  RH  030%=      5-min Rain = 0
KTR1 062203Z 17011KT 37/16 A299 RMK A01 T03670160  RH  029%=      5-min Rain = 0
KTR1 062204Z 17009KT 37/16 A299 RMK A01 T03670160  RH  029%=      5-min Rain = 0
KTR1 062205Z 17010KT 37/16 A299 RMK A01 T03660160  RH  030%=      5-min Rain = 0
KTR1 062206Z 18010KT 37/16 A299 RMK A01 T03650160  RH  030%=      5-min Rain = 0
KTR1 062207Z 17009KT 37/16 A299 RMK A01 T03650161  RH  030%=      5-min Rain = 0
KTR1 062208Z 17009KT 37/16 A299 RMK A01 T03650161  RH  030%=      5-min Rain = 0
KTR1 062209Z 16010KT 37/16 A299 RMK A01 T03650161  RH  030%=      5-min Rain = 0
KTR1 062210Z 16012KT 37/16 A299 RMK A01 T03660161  RH  030%=      5-min Rain = 0
KTR1 062211Z 16010KT 37/16 A299 RMK A01 T03680159  RH  029%=      5-min Rain = 0
KTR1 062212Z 15012KT 37/16 A299 RMK A01 T03680159  RH  029%=      5-min Rain = 0
KTR1 062213Z 16010KT 37/16 A299 RMK A01 T03690157  RH  029%=      5-min Rain = 0
KTR1 062214Z 17012KT 37/15 A2989 RMK A01 T03690151  RH  027%=      5-min Rain = 0
KTR1 062215Z 17012KT 37/15 A2989 RMK A01 T03700146  RH  026%=      5-min Rain = 0
KTR1 062216Z 18012KT 37/14 A2989 RMK A01 T03710144  RH  026%=      5-min Rain = 0
KTR1 062217Z 16012KT 37/15 A2989 RMK A01 T03720147  RH  026%=      5-min Rain = 0
KTR1 062218Z 14011KT 38/16 A2989 RMK A01 T03760158  RH  028%=      5-min Rain = 0
KTR1 062219Z 14013KT 38/16 A2989 RMK A01 T03780159  RH  028%=      5-min Rain = 0
KTR1 062220Z 17013KT 38/16 A2989 RMK A01 T03810155  RH  027%=      5-min Rain = 0
KTR1 062221Z 17014KT 38/15 A2989 RMK A01 T03790153  RH  026%=      5-min Rain = 0
KTR1 062222Z 17010KT 38/15 A2989 RMK A01 T03770152  RH  026%=      5-min Rain = 0
KTR1 062223Z 17011KT 38/15 A2989 RMK A01 T03770152  RH  026%=      5-min Rain = 0
KTR1 062224Z 17011KT 38/15 A2989 RMK A01 T03780147  RH  025%=      5-min Rain = 0
KTR1 062225Z 17011KT 38/15 A2989 RMK A01 T03780149  RH  026%=      5-min Rain = 0
KTR1 062226Z 14013KT 38/15 A2989 RMK A01 T03780151  RH  026%=      5-min Rain = 0
KTR1 062227Z 14011KT 38/15 A2989 RMK A01 T03810151  RH  026%=      5-min Rain = 0
KTR1 062228Z 13008KT 38/15 A2989 RMK A01 T03790150  RH  026%=      5-min Rain = 0
KTR1 062229Z 15014KT 38/15 A2989 RMK A01 T03790152  RH  026%=      5-min Rain = 0
KTR1 062230Z 17012KT 38/15 A2989 RMK A01 T03810153  RH  026%=      5-min Rain = 0
KTR1 062231Z 15013KT 38/15 A2989 RMK A01 T03810151  RH  026%=      5-min Rain = 0
KTR1 062232Z 15010KT 38/15 A2989 RMK A01 T03800149  RH  026%=      5-min Rain = 0
KTR1 062233Z 17013KT 38/15 A2989 RMK A01 T03800152  RH  026%=      5-min Rain = 0
KTR1 062234Z 15014KT 38/15 A2989 RMK A01 T03840154  RH  026%=      5-min Rain = 0
KTR1 062235Z 15014KT 39/15 A2989 RMK A01 T03850154  RH  026%=      5-min Rain = 0
KTR1 062236Z 14015KT 38/16 A2989 RMK A01 T03840155  RH  026%=      5-min Rain = 0
KTR1 062237Z 17013KT 38/15 A2989 RMK A01 T03830154  RH  026%=      5-min Rain = 0
KTR1 062238Z 17017KT 38/15 A2989 RMK A01 T03840153  RH  026%=      5-min Rain = 0
KTR1 062239Z 17016KT 38/16 A2989 RMK A01 T03830155  RH  026%=      5-min Rain = 0
KTR1 062240Z 18015G20KT 38/16 A2989 RMK A01 T03810156  RH  027%=      5-min Rain = 0
KTR1 062241Z 17015KT 38/16 A2989 RMK A01 T03810157  RH  027%=      5-min Rain = 0
KTR1 062242Z 16016KT 38/16 A2989 RMK A01 T03810158  RH  027%=      5-min Rain = 0
KTR1 062243Z 16014KT 38/16 A2989 RMK A01 T03810157  RH  027%=      5-min Rain = 0
KTR1 062244Z 16015KT 38/16 A2989 RMK A01 T03800156  RH  027%=      5-min Rain = 0
KTR1 062245Z 16013KT 38/16 A2989 RMK A01 T03810156  RH  027%=      5-min Rain = 0
KTR1 062246Z 17015KT 38/16 A2989 RMK A01 T03810159  RH  027%=      5-min Rain = 0
KTR1 062247Z 18020KT 38/16 A2989 RMK A01 T03840160  RH  027%=      5-min Rain = 0
KTR1 062248Z 16020KT 38/16 A2989 RMK A01 T03820159  RH  027%=      5-min Rain = 0
KTR1 062249Z 16019KT 38/16 A2989 RMK A01 T03820159  RH  027%=      5-min Rain = 0
KTR1 062250Z 16016KT 38/16 A2989 RMK A01 T03800159  RH  027%=      5-min Rain = 0
KTR1 062251Z 17013KT 38/16 A2989 RMK A01 T03800159  RH  027%=      5-min Rain = 0
KTR1 062252Z 17019KT 38/16 A2989 RMK A01 T03800159  RH  027%=      5-min Rain = 0
KTR1 062253Z 17019KT 38/16 A2989 RMK A01 T03820158  RH  027%=      5-min Rain = 0
KTR1 062254Z 17020KT 38/16 A2989 RMK A01 T03830157  RH  027%=      5-min Rain = 0
KTR1 062255Z 16016KT 38/16 A2989 RMK A01 T03820158  RH  027%=      5-min Rain = 0
KTR1 062256Z 17016KT 38/16 A2989 RMK A01 T03810159  RH  027%=      5-min Rain = 0
KTR1 062257Z 17016KT 38/16 A2989 RMK A01 T03800159  RH  027%=      5-min Rain = 0
KTR1 062258Z 16016KT 38/16 A2988 RMK A01 T03800159  RH  027%=      5-min Rain = 0
KTR1 062259Z 16015KT 38/16 A2988 RMK A01 T03800160  RH  027%=      5-min Rain = 0
KTR1 062300Z 16014KT 38/16 A2988 RMK A01 T03830160  RH  027%=      5-min Rain = 0
KTR1 062301Z 15015KT 38/16 A2988 RMK A01 T03840160  RH  027%=      5-min Rain = 0
KTR1 062302Z 15015KT 38/16 A2988 RMK A01 T03840160  RH  027%=      5-min Rain = 0
KTR1 062303Z 14014KT 38/16 A2988 RMK A01 T03830160  RH  027%=      5-min Rain = 0
KTR1 062304Z 15018KT 38/16 A2988 RMK A01 T03820160  RH  027%=      5-min Rain = 0
KTR1 062305Z 16017KT 38/16 A2988 RMK A01 T03810157  RH  027%=      5-min Rain = 0
KTR1 062306Z 15017KT 38/16 A2988 RMK A01 T03790158  RH  027%=      5-min Rain = 0
KTR1 062307Z 16015KT 38/16 A2988 RMK A01 T03800158  RH  027%=      5-min Rain = 0
KTR1 062308Z 16014KT 38/16 A2988 RMK A01 T03790158  RH  027%=      5-min Rain = 0
KTR1 062309Z 14018KT 38/16 A2988 RMK A01 T03790157  RH  027%=      5-min Rain = 0
KTR1 062310Z 14017KT 38/15 A2988 RMK A01 T03790154  RH  026%=      5-min Rain = 0
KTR1 062311Z 15018KT 38/16 A2988 RMK A01 T03800156  RH  027%=      5-min Rain = 0
KTR1 062312Z 16017KT 38/16 A2988 RMK A01 T03810156  RH  027%=      5-min Rain = 0
KTR1 062313Z 16019KT 38/16 A2988 RMK A01 T03810156  RH  027%=      5-min Rain = 0
KTR1 062314Z 18019KT 38/16 A2988 RMK A01 T03820157  RH  027%=      5-min Rain = 0
KTR1 062315Z 17015KT 38/16 A2988 RMK A01 T03800156  RH  027%=      5-min Rain = 0
KTR1 062316Z 15017KT 38/16 A2988 RMK A01 T03790158  RH  027%=      5-min Rain = 0
KTR1 062317Z 14014KT 38/16 A2988 RMK A01 T03820159  RH  027%=      5-min Rain = 0
KTR1 062318Z 14014KT 38/16 A2988 RMK A01 T03810158  RH  027%=      5-min Rain = 0
KTR1 062319Z 15015KT 38/16 A2988 RMK A01 T03810159  RH  027%=      5-min Rain = 0
KTR1 062320Z 14015KT 38/16 A2988 RMK A01 T03810160  RH  027%=      5-min Rain = 0
KTR1 062321Z 15016KT 38/16 A2988 RMK A01 T03810160  RH  027%=      5-min Rain = 0
KTR1 062322Z 15013KT 38/16 A2988 RMK A01 T03790161  RH  028%=      5-min Rain = 0
KTR1 062323Z 14014KT 38/16 A2988 RMK A01 T03780162  RH  028%=      5-min Rain = 0
KTR1 062324Z 15017KT 38/16 A2988 RMK A01 T03810161  RH  028%=      5-min Rain = 0
KTR1 062325Z 15018KT 38/16 A2988 RMK A01 T03810159  RH  027%=      5-min Rain = 0
KTR1 062326Z 15017G22KT 38/16 A2988 RMK A01 T03800158  RH  027%=      5-min Rain = 0
KTR1 062327Z 14018KT 38/16 A2988 RMK A01 T03780158  RH  027%=      5-min Rain = 0
KTR1 062328Z 14018KT 38/16 A2988 RMK A01 T03770157  RH  027%=      5-min Rain = 0
KTR1 062329Z 15017KT 38/16 A2988 RMK A01 T03770158  RH  027%=      5-min Rain = 0
KTR1 062330Z 14019KT 38/16 A2988 RMK A01 T03780159  RH  027%=      5-min Rain = 0
KTR1 062331Z 15017KT 38/16 A2988 RMK A01 T03770159  RH  028%=      5-min Rain = 0
KTR1 062332Z 15016G21KT 38/16 A2988 RMK A01 T03750160  RH  028%=      5-min Rain = 0
KTR1 062333Z 14015KT 38/16 A2988 RMK A01 T03760162  RH  028%=      5-min Rain = 0
KTR1 062334Z 14013KT 38/16 A2988 RMK A01 T03770163  RH  028%=      5-min Rain = 0
KTR1 062335Z 14017KT 38/16 A2988 RMK A01 T03760163  RH  028%=      5-min Rain = 0
KTR1 062336Z 14016KT 38/16 A2988 RMK A01 T03760164  RH  029%=      5-min Rain = 0
KTR1 062337Z 14018KT 38/16 A2988 RMK A01 T03770162  RH  028%=      5-min Rain = 0
KTR1 062338Z 14014G19KT 38/16 A2988 RMK A01 T03770160  RH  028%=      5-min Rain = 0
KTR1 062339Z 14013KT 38/16 A2988 RMK A01 T03760162  RH  028%=      5-min Rain = 0
KTR1 062340Z 15014KT 38/16 A2988 RMK A01 T03760163  RH  029%=      5-min Rain = 0
KTR1 062341Z 16016KT 38/16 A2988 RMK A01 T03760164  RH  029%=      5-min Rain = 0
KTR1 062342Z 16015KT 38/16 A2988 RMK A01 T03750164  RH  029%=      5-min Rain = 0
KTR1 062343Z 16019KT 38/16 A2988 RMK A01 T03750164  RH  029%=      5-min Rain = 0
KTR1 062344Z 15016KT 37/16 A2988 RMK A01 T03740163  RH  029%=      5-min Rain = 0
KTR1 062345Z 15015KT 37/16 A2988 RMK A01 T03720164  RH  029%=      5-min Rain = 0
KTR1 062346Z 16016KT 37/16 A2988 RMK A01 T03720163  RH  029%=      5-min Rain = 0
KTR1 062347Z 16014KT 37/16 A2987 RMK A01 T03720164  RH  029%=      5-min Rain = 0
KTR1 062348Z 14015KT 37/17 A2988 RMK A01 T03720165  RH  030%=      5-min Rain = 0
KTR1 062349Z 13016KT 37/17 A2988 RMK A01 T03720166  RH  030%=      5-min Rain = 0
KTR1 062350Z 13016KT 37/17 A2988 RMK A01 T03720166  RH  030%=      5-min Rain = 0
KTR1 062351Z 13016KT 37/17 A2988 RMK A01 T03710165  RH  030%=      5-min Rain = 0
KTR1 062352Z 14015KT 37/17 A2988 RMK A01 T03710165  RH  030%=      5-min Rain = 0
KTR1 062353Z 13017KT 37/17 A2988 RMK A01 T03710165  RH  030%=      5-min Rain = 0
KTR1 062354Z 14017KT 37/17 A2988 RMK A01 T03690165  RH  030%=      5-min Rain = 0
KTR1 062355Z 14017KT 37/17 A2988 RMK A01 T03680165  RH  030%=      5-min Rain = 0
KTR1 062356Z 13015KT 37/16 A2987 RMK A01 T03670164  RH  030%=      5-min Rain = 0
KTR1 062357Z 13016KT 37/16 A2987 RMK A01 T03660164  RH  030%=      5-min Rain = 0
KTR1 062358Z 14017KT 37/16 A2987 RMK A01 T03660164  RH  030%=      5-min Rain = 0
KTR1 062359Z 14017KT 37/16 A2987 RMK A01 T03650164  RH  030%=      5-min Rain = 0
KTR1 070000Z 13015KT 37/17 A2987 RMK A01 T03650165  RH  031%=      5-min Rain = 0
KTR1 070001Z 14014KT 37/17 A2987 RMK A01 T03660165  RH  031%=      5-min Rain = 0
KTR1 070002Z 14016KT 37/17 A2987 RMK A01 T03660165  RH  030%=      5-min Rain = 0
KTR1 070003Z 13016KT 37/16 A2987 RMK A01 T03660164  RH  030%=      5-min Rain = 0
KTR1 070004Z 14015KT 37/16 A2987 RMK A01 T03660163  RH  030%=      5-min Rain = 0
KTR1 070005Z 14013KT 37/16 A2987 RMK A01 T03650163  RH  030%=      5-min Rain = 0
KTR1 070006Z 13015KT 37/16 A2987 RMK A01 T03660161  RH  030%=      5-min Rain = 0
KTR1 070007Z 14015KT 37/16 A2987 RMK A01 T03660160  RH  030%=      5-min Rain = 0
KTR1 070008Z 13015KT 37/16 A2987 RMK A01 T03660160  RH  030%=      5-min Rain = 0
KTR1 070009Z 14016KT 37/16 A2987 RMK A01 T03660160  RH  030%=      5-min Rain = 0
KTR1 070010Z 13014KT 37/16 A2987 RMK A01 T03650159  RH  030%=      5-min Rain = 0
KTR1 070011Z 13013KT 37/16 A2987 RMK A01 T03650159  RH  030%=      5-min Rain = 0
KTR1 070012Z 14014KT 37/16 A2987 RMK A01 T03660159  RH  029%=      5-min Rain = 0
KTR1 070013Z 14015KT 37/16 A2987 RMK A01 T03660159  RH  030%=      5-min Rain = 0
KTR1 070014Z 14013KT 37/16 A2987 RMK A01 T03650159  RH  029%=      5-min Rain = 0
KTR1 070015Z 14012KT 37/16 A2987 RMK A01 T03650159  RH  029%=      5-min Rain = 0
KTR1 070016Z 14011KT 37/16 A2987 RMK A01 T03660158  RH  029%=      5-min Rain = 0
KTR1 070017Z 14013KT 37/16 A2987 RMK A01 T03660158  RH  029%=      5-min Rain = 0
KTR1 070018Z 14013KT 37/16 A2987 RMK A01 T03660158  RH  029%=      5-min Rain = 0
KTR1 070019Z 14014KT 37/16 A2987 RMK A01 T03650157  RH  029%=      5-min Rain = 0
KTR1 070020Z 14014KT 37/16 A2987 RMK A01 T03650157  RH  029%=      5-min Rain = 0
KTR1 070021Z 13014KT 36/16 A2987 RMK A01 T03640158  RH  029%=      5-min Rain = 0
KTR1 070022Z 13014KT 36/16 A2987 RMK A01 T03640158  RH  030%=      5-min Rain = 0
KTR1 070023Z 14014KT 36/16 A2987 RMK A01 T03640158  RH  030%=      5-min Rain = 0
KTR1 070024Z 14015KT 36/16 A2987 RMK A01 T03640159  RH  030%=      5-min Rain = 0
KTR1 070025Z 14014KT 36/16 A2987 RMK A01 T03630160  RH  030%=      5-min Rain = 0
KTR1 070026Z 14016KT 36/16 A2987 RMK A01 T03630160  RH  030%=      5-min Rain = 0
KTR1 070027Z 13015KT 36/16 A2987 RMK A01 T03630161  RH  030%=      5-min Rain = 0
KTR1 070028Z 14015KT 36/16 A2987 RMK A01 T03630161  RH  030%=      5-min Rain = 0
KTR1 070029Z 14016KT 36/16 A2987 RMK A01 T03620162  RH  031%=      5-min Rain = 0
KTR1 070030Z 14014KT 36/16 A2987 RMK A01 T03620162  RH  031%=      5-min Rain = 0
KTR1 070031Z 13012KT 36/16 A2987 RMK A01 T03620162  RH  031%=      5-min Rain = 0
KTR1 070032Z 13013KT 36/16 A2987 RMK A01 T03620162  RH  031%=      5-min Rain = 0
KTR1 070033Z 13015KT 36/16 A2987 RMK A01 T03620162  RH  031%=      5-min Rain = 0
KTR1 070034Z 13014KT 36/16 A2987 RMK A01 T03620163  RH  031%=      5-min Rain = 0
KTR1 070035Z 13014KT 36/16 A2987 RMK A01 T03620163  RH  031%=      5-min Rain = 0
KTR1 070036Z 14014KT 36/16 A2987 RMK A01 T03610164  RH  031%=      5-min Rain = 0
KTR1 070037Z 14013KT 36/16 A2987 RMK A01 T03610164  RH  031%=      5-min Rain = 0
KTR1 070038Z 14013KT 36/16 A2987 RMK A01 T03610164  RH  031%=      5-min Rain = 0
KTR1 070039Z 14014KT 36/16 A2987 RMK A01 T03610164  RH  031%=      5-min Rain = 0
KTR1 070040Z 14013KT 36/16 A2987 RMK A01 T03610164  RH  031%=      5-min Rain = 0
KTR1 070041Z 15013KT 36/16 A2987 RMK A01 T03610164  RH  031%=      5-min Rain = 0
KTR1 070042Z 14012KT 36/16 A2987 RMK A01 T03610164  RH  031%=      5-min Rain = 0
KTR1 070043Z 14013KT 36/16 A2987 RMK A01 T03610164  RH  031%=      5-min Rain = 0
KTR1 070044Z 14013KT 36/16 A2987 RMK A01 T03600164  RH  031%=      5-min Rain = 0
KTR1 070045Z 14013KT 36/16 A2987 RMK A01 T03600164  RH  031%=      5-min Rain = 0
KTR1 070046Z 14013KT 36/16 A2987 RMK A01 T03590163  RH  031%=      5-min Rain = 0
KTR1 070047Z 14012KT 36/16 A2987 RMK A01 T03600164  RH  031%=      5-min Rain = 0
KTR1 070048Z 14012KT 36/16 A2987 RMK A01 T03590163  RH  031%=      5-min Rain = 0
KTR1 070049Z 14010KT 36/16 A2987 RMK A01 T03580163  RH  031%=      5-min Rain = 0
KTR1 070050Z 14011KT 36/16 A2987 RMK A01 T03580163  RH  032%=      5-min Rain = 0
KTR1 070051Z 14012KT 36/16 A2987 RMK A01 T03570163  RH  032%=      5-min Rain = 0
KTR1 070052Z 14012KT 36/16 A2987 RMK A01 T03570163  RH  032%=      5-min Rain = 0
KTR1 070053Z 14012KT 36/16 A2987 RMK A01 T03560162  RH  032%=      5-min Rain = 0
KTR1 070054Z 14010KT 36/16 A2987 RMK A01 T03560163  RH  032%=      5-min Rain = 0
KTR1 070055Z 14011KT 36/16 A2987 RMK A01 T03560162  RH  032%=      5-min Rain = 0
KTR1 070056Z 14011KT 36/16 A2987 RMK A01 T03560163  RH  032%=      5-min Rain = 0
KTR1 070057Z 14013KT 36/16 A2987 RMK A01 T03560162  RH  032%=      5-min Rain = 0
KTR1 070058Z 14011KT 36/16 A2987 RMK A01 T03560162  RH  032%=      5-min Rain = 0
KTR1 070059Z 14009KT 36/16 A2987 RMK A01 T03560162  RH  032%=      5-min Rain = 0
KTR1 070100Z 14010KT 36/16 A2987 RMK A01 T03560163  RH  032%=      5-min Rain = 0
KTR1 070101Z 14010KT 36/16 A2987 RMK A01 T03550162  RH  032%=      5-min Rain = 0
KTR1 070102Z 14009KT 36/16 A2986 RMK A01 T03550162  RH  032%=      5-min Rain = 0
KTR1 070103Z 14009KT 36/16 A2986 RMK A01 T03550163  RH  032%=      5-min Rain = 0
KTR1 070104Z 14010KT 36/16 A2986 RMK A01 T03550162  RH  032%=      5-min Rain = 0
KTR1 070105Z 15013KT 36/16 A2986 RMK A01 T03550161  RH  032%=      5-min Rain = 0
KTR1 070106Z 14012KT 36/16 A2986 RMK A01 T03550159  RH  031%=      5-min Rain = 0
KTR1 070107Z 15014KT 36/16 A2986 RMK A01 T03550157  RH  031%=      5-min Rain = 0
KTR1 070108Z 15013KT 36/16 A2986 RMK A01 T03560156  RH  030%=      5-min Rain = 0
KTR1 070109Z 15013KT 36/16 A2986 RMK A01 T03560156  RH  030%=      5-min Rain = 0
KTR1 070110Z 14013KT 36/16 A2986 RMK A01 T03560155  RH  030%=      5-min Rain = 0
KTR1 070111Z 14013KT 36/16 A2986 RMK A01 T03560155  RH  030%=      5-min Rain = 0
KTR1 070112Z 14011KT 36/16 A2986 RMK A01 T03560155  RH  030%=      5-min Rain = 0
KTR1 070113Z 14012KT 36/16 A2986 RMK A01 T03560155  RH  030%=      5-min Rain = 0
KTR1 070114Z 14012KT 36/16 A2986 RMK A01 T03550155  RH  030%=      5-min Rain = 0
KTR1 070115Z 14012KT 36/16 A2986 RMK A01 T03550155  RH  031%=      5-min Rain = 0
KTR1 070116Z 14011KT 35/16 A2986 RMK A01 T03540155  RH  031%=      5-min Rain = 0
KTR1 070117Z 14012KT 35/16 A2986 RMK A01 T03530155  RH  031%=      5-min Rain = 0
KTR1 070118Z 14011KT 35/16 A2986 RMK A01 T03530155  RH  031%=      5-min Rain = 0
KTR1 070119Z 13011KT 35/16 A2986 RMK A01 T03530156  RH  031%=      5-min Rain = 0
KTR1 070120Z 14009KT 35/16 A2986 RMK A01 T03520156  RH  031%=      5-min Rain = 0
KTR1 070121Z 13011KT 35/16 A2987 RMK A01 T03520157  RH  031%=      5-min Rain = 0
KTR1 070122Z 13013KT 35/16 A2986 RMK A01 T03510158  RH  032%=      5-min Rain = 0
KTR1 070123Z 14011KT 35/16 A2987 RMK A01 T03510159  RH  032%=      5-min Rain = 0
KTR1 070124Z 14011KT 35/16 A2987 RMK A01 T03500159  RH  032%=      5-min Rain = 0
KTR1 070125Z 13012KT 35/16 A2987 RMK A01 T03490159  RH  032%=      5-min Rain = 0
KTR1 070126Z 14009KT 35/16 A2987 RMK A01 T03490159  RH  032%=      5-min Rain = 0
KTR1 070127Z 13011KT 35/16 A2987 RMK A01 T03480159  RH  032%=      5-min Rain = 0
KTR1 070128Z 14012KT 35/16 A2987 RMK A01 T03480159  RH  033%=      5-min Rain = 0
KTR1 070129Z 14010KT 35/16 A2987 RMK A01 T03470160  RH  033%=      5-min Rain = 0
KTR1 070130Z 14012KT 35/16 A2987 RMK A01 T03470160  RH  033%=      5-min Rain = 0
KTR1 070131Z 14012KT 35/16 A2987 RMK A01 T03470160  RH  033%=      5-min Rain = 0
KTR1 070132Z 14011KT 35/16 A2987 RMK A01 T03460159  RH  033%=      5-min Rain = 0
KTR1 070133Z 14011KT 35/16 A2987 RMK A01 T03460160  RH  033%=      5-min Rain = 0
KTR1 070134Z 14010KT 35/16 A2987 RMK A01 T03460160  RH  033%=      5-min Rain = 0
KTR1 070135Z 14010KT 35/16 A2987 RMK A01 T03450160  RH  033%=      5-min Rain = 0
KTR1 070136Z 14009KT 34/16 A2987 RMK A01 T03440160  RH  033%=      5-min Rain = 0
KTR1 070137Z 14011KT 34/16 A2987 RMK A01 T03440160  RH  033%=      5-min Rain = 0
KTR1 070138Z 14009KT 34/16 A2987 RMK A01 T03430160  RH  034%=      5-min Rain = 0
KTR1 070139Z 14009KT 34/16 A2987 RMK A01 T03420160  RH  034%=      5-min Rain = 0
KTR1 070140Z 14010KT 34/16 A2987 RMK A01 T03420161  RH  034%=      5-min Rain = 0
KTR1 070141Z 14009KT 34/16 A2987 RMK A01 T03420161  RH  034%=      5-min Rain = 0
KTR1 070142Z 14009KT 34/16 A2987 RMK A01 T03410161  RH  034%=      5-min Rain = 0
KTR1 070143Z 14009KT 34/16 A2987 RMK A01 T03410161  RH  034%=      5-min Rain = 0
KTR1 070144Z 14009KT 34/16 A2987 RMK A01 T03400161  RH  034%=      5-min Rain = 0
KTR1 070145Z 14009KT 34/16 A2987 RMK A01 T03400162  RH  035%=      5-min Rain = 0
KTR1 070146Z 14009KT 34/16 A2987 RMK A01 T03390162  RH  035%=      5-min Rain = 0
KTR1 070147Z 14010KT 34/16 A2987 RMK A01 T03390162  RH  035%=      5-min Rain = 0
KTR1 070148Z 14009KT 34/16 A2987 RMK A01 T03390162  RH  035%=      5-min Rain = 0
KTR1 070149Z 14009KT 34/16 A2987 RMK A01 T03390162  RH  035%=      5-min Rain = 0
KTR1 070150Z 14009KT 34/16 A2987 RMK A01 T03390162  RH  035%=      5-min Rain = 0
KTR1 070151Z 14009KT 34/16 A2987 RMK A01 T03390162  RH  035%=      5-min Rain = 0
KTR1 070152Z 14009KT 34/16 A2987 RMK A01 T03380162  RH  035%=      5-min Rain = 0
KTR1 070153Z 14009KT 34/16 A2987 RMK A01 T03380162  RH  035%=      5-min Rain = 0
KTR1 070154Z 14009KT 34/16 A2987 RMK A01 T03370162  RH  035%=      5-min Rain = 0
KTR1 070155Z 14009KT 34/16 A2987 RMK A01 T03360162  RH  035%=      5-min Rain = 0
KTR1 070156Z 14008KT 34/16 A2987 RMK A01 T03360162  RH  035%=      5-min Rain = 0
KTR1 070157Z 14008KT 34/16 A2987 RMK A01 T03350161  RH  035%=      5-min Rain = 0
KTR1 070158Z 14008KT 34/16 A2988 RMK A01 T03350161  RH  035%=      5-min Rain = 0
KTR1 070159Z 14009KT 33/16 A2988 RMK A01 T03340161  RH  035%=      5-min Rain = 0
KTR1 070200Z 14009KT 33/16 A2988 RMK A01 T03340161  RH  036%=      5-min Rain = 0
KTR1 070201Z 14009KT 33/16 A2988 RMK A01 T03340161  RH  035%=      5-min Rain = 0
KTR1 070202Z 14008KT 33/16 A2988 RMK A01 T03340160  RH  035%=      5-min Rain = 0
KTR1 070203Z 14008KT 33/16 A2988 RMK A01 T03340161  RH  035%=      5-min Rain = 0
KTR1 070204Z 14009KT 33/16 A2988 RMK A01 T03330160  RH  035%=      5-min Rain = 0
KTR1 070205Z 14008KT 33/16 A2988 RMK A01 T03330160  RH  035%=      5-min Rain = 0
KTR1 070206Z 14009KT 33/16 A2988 RMK A01 T03320160  RH  036%=      5-min Rain = 0
KTR1 070207Z 14008KT 33/16 A2988 RMK A01 T03320159  RH  036%=      5-min Rain = 0
KTR1 070208Z 14009KT 33/16 A2988 RMK A01 T03320159  RH  035%=      5-min Rain = 0
KTR1 070209Z 14009KT 33/16 A2988 RMK A01 T03320159  RH  035%=      5-min Rain = 0
KTR1 070210Z 14009KT 33/16 A2988 RMK A01 T03320159  RH  035%=      5-min Rain = 0
KTR1 070211Z 13008KT 33/16 A2988 RMK A01 T03320159  RH  035%=      5-min Rain = 0
KTR1 070212Z 13008KT 33/16 A2988 RMK A01 T03310158  RH  035%=      5-min Rain = 0
KTR1 070213Z 14009KT 33/16 A2988 RMK A01 T03310158  RH  035%=      5-min Rain = 0
KTR1 070214Z 14008KT 33/16 A2988 RMK A01 T03310158  RH  035%=      5-min Rain = 0
KTR1 070215Z 13008KT 33/16 A2988 RMK A01 T03300157  RH  035%=      5-min Rain = 0
KTR1 070216Z 14008KT 33/16 A2988 RMK A01 T03300157  RH  035%=      5-min Rain = 0
KTR1 070217Z 14008KT 33/16 A2988 RMK A01 T03300157  RH  035%=      5-min Rain = 0
KTR1 070218Z 13009KT 33/16 A2988 RMK A01 T03290157  RH  035%=      5-min Rain = 0
KTR1 070219Z 13008KT 33/16 A2988 RMK A01 T03300157  RH  035%=      5-min Rain = 0
KTR1 070220Z 13008KT 33/16 A2988 RMK A01 T03300157  RH  035%=      5-min Rain = 0
KTR1 070221Z 13008KT 33/16 A2988 RMK A01 T03290156  RH  035%=      5-min Rain = 0
KTR1 070222Z 13008KT 33/16 A2988 RMK A01 T03280156  RH  036%=      5-min Rain = 0
KTR1 070223Z 13008KT 33/16 A2988 RMK A01 T03280156  RH  036%=      5-min Rain = 0
KTR1 070224Z 13009KT 33/16 A2989 RMK A01 T03280156  RH  036%=      5-min Rain = 0
KTR1 070225Z 13008KT 33/16 A2989 RMK A01 T03280156  RH  036%=      5-min Rain = 0
KTR1 070226Z 13008KT 33/16 A2989 RMK A01 T03280156  RH  036%=      5-min Rain = 0
KTR1 070227Z 13007KT 33/16 A2989 RMK A01 T03270156  RH  036%=      5-min Rain = 0
KTR1 070228Z 13008KT 33/16 A2989 RMK A01 T03260155  RH  036%=      5-min Rain = 0
KTR1 070229Z 13008KT 33/16 A2989 RMK A01 T03250155  RH  036%=      5-min Rain = 0
KTR1 070230Z 13008KT 32/16 A2989 RMK A01 T03240155  RH  036%=      5-min Rain = 0
KTR1 070231Z 13007KT 32/16 A2989 RMK A01 T03240155  RH  036%=      5-min Rain = 0
KTR1 070232Z 13008KT 32/16 A2989 RMK A01 T03240156  RH  036%=      5-min Rain = 0
KTR1 070233Z 13007KT 32/16 A2989 RMK A01 T03230155  RH  036%=      5-min Rain = 0
KTR1 070234Z 13008KT 32/16 A2989 RMK A01 T03230155  RH  036%=      5-min Rain = 0
KTR1 070235Z 13008KT 32/16 A2989 RMK A01 T03230155  RH  036%=      5-min Rain = 0
KTR1 070236Z 13008KT 32/16 A2989 RMK A01 T03230155  RH  036%=      5-min Rain = 0
KTR1 070237Z 13008KT 32/16 A2989 RMK A01 T03220155  RH  036%=      5-min Rain = 0
KTR1 070238Z 13008KT 32/16 A2989 RMK A01 T03220155  RH  037%=      5-min Rain = 0
KTR1 070239Z 13008KT 32/16 A2989 RMK A01 T03220155  RH  037%=      5-min Rain = 0
KTR1 070240Z 13008KT 32/16 A2989 RMK A01 T03220155  RH  037%=      5-min Rain = 0
KTR1 070241Z 13007KT 32/16 A2989 RMK A01 T03210155  RH  037%=      5-min Rain = 0
KTR1 070242Z 13008KT 32/16 A2989 RMK A01 T03210155  RH  037%=      5-min Rain = 0
KTR1 070243Z 13008KT 32/16 A2989 RMK A01 T03200155  RH  037%=      5-min Rain = 0
KTR1 070244Z 13007KT 32/16 A2989 RMK A01 T03200155  RH  037%=      5-min Rain = 0
KTR1 070245Z 13007KT 32/16 A2989 RMK A01 T03190155  RH  037%=      5-min Rain = 0
KTR1 070246Z 13008KT 32/16 A2989 RMK A01 T03190155  RH  037%=      5-min Rain = 0
KTR1 070247Z 13007KT 32/16 A2989 RMK A01 T03190155  RH  037%=      5-min Rain = 0
KTR1 070248Z 14008KT 32/16 A2989 RMK A01 T03190155  RH  037%=      5-min Rain = 0
KTR1 070249Z 13008KT 32/16 A2989 RMK A01 T03180155  RH  037%=      5-min Rain = 0
KTR1 070250Z 13008KT 32/15 A2989 RMK A01 T03170154  RH  037%=      5-min Rain = 0
KTR1 070251Z 13008KT 32/15 A2989 RMK A01 T03170154  RH  037%=      5-min Rain = 0
KTR1 070252Z 14008KT 32/16 A2989 RMK A01 T03170155  RH  038%=      5-min Rain = 0
KTR1 070253Z 13008KT 32/16 A2989 RMK A01 T03170155  RH  038%=      5-min Rain = 0
KTR1 070254Z 13007KT 32/15 A2989 RMK A01 T03170154  RH  038%=      5-min Rain = 0
KTR1 070255Z 13008KT 32/16 A2989 RMK A01 T03170155  RH  038%=      5-min Rain = 0
KTR1 070256Z 13007KT 32/15 A2989 RMK A01 T03160154  RH  038%=      5-min Rain = 0
KTR1 070257Z 13007KT 32/15 A2989 RMK A01 T03160154  RH  038%=      5-min Rain = 0
KTR1 070258Z 13008KT 32/15 A2989 RMK A01 T03150154  RH  038%=      5-min Rain = 0
KTR1 070259Z 13008KT 32/15 A2989 RMK A01 T03150154  RH  038%=      5-min Rain = 0
KTR1 070300Z 13008KT 32/15 A2989 RMK A01 T03150154  RH  038%=      5-min Rain = 0
KTR1 070301Z 13008KT 32/15 A2989 RMK A01 T03150154  RH  038%=      5-min Rain = 0
KTR1 070302Z 13008KT 32/15 A2989 RMK A01 T03150154  RH  038%=      5-min Rain = 0
KTR1 070303Z 13008KT 32/15 A2989 RMK A01 T03150154  RH  038%=      5-min Rain = 0
KTR1 070304Z 13008KT 31/15 A2989 RMK A01 T03140154  RH  038%=      5-min Rain = 0
KTR1 070305Z 13008KT 31/15 A2989 RMK A01 T03140154  RH  038%=      5-min Rain = 0
KTR1 070306Z 13008KT 31/15 A2989 RMK A01 T03140154  RH  038%=      5-min Rain = 0
KTR1 070307Z 13008KT 31/15 A2989 RMK A01 T03140154  RH  038%=      5-min Rain = 0
KTR1 070308Z 13008KT 31/15 A2989 RMK A01 T03140154  RH  038%=      5-min Rain = 0
KTR1 070309Z 13008KT 31/15 A2989 RMK A01 T03140154  RH  038%=      5-min Rain = 0
KTR1 070310Z 13008KT 31/15 A2989 RMK A01 T03130154  RH  038%=      5-min Rain = 0
KTR1 070311Z 13009KT 31/15 A2989 RMK A01 T03130154  RH  038%=      5-min Rain = 0
KTR1 070312Z 14008KT 31/15 A2989 RMK A01 T03130154  RH  038%=      5-min Rain = 0
KTR1 070313Z 14009KT 31/15 A2989 RMK A01 T03130154  RH  038%=      5-min Rain = 0
KTR1 070314Z 14009KT 31/15 A2989 RMK A01 T03130154  RH  038%=      5-min Rain = 0
KTR1 070315Z 14009KT 31/15 A2989 RMK A01 T03130154  RH  038%=      5-min Rain = 0
KTR1 070316Z 13009KT 31/15 A2989 RMK A01 T03140154  RH  038%=      5-min Rain = 0
KTR1 070317Z 14010KT 31/15 A2989 RMK A01 T03140154  RH  038%=      5-min Rain = 0
KTR1 070318Z 14010KT 31/15 A2989 RMK A01 T03140154  RH  038%=      5-min Rain = 0
KTR1 070319Z 14009KT 31/15 A2989 RMK A01 T03140154  RH  038%=      5-min Rain = 0
KTR1 070320Z 14009KT 31/15 A2989 RMK A01 T03140154  RH  038%=      5-min Rain = 0
KTR1 070321Z 14009KT 31/15 A2989 RMK A01 T03140154  RH  038%=      5-min Rain = 0
KTR1 070322Z 13008KT 31/15 A2989 RMK A01 T03140153  RH  038%=      5-min Rain = 0
KTR1 070323Z 14009KT 31/15 A2989 RMK A01 T03140153  RH  038%=      5-min Rain = 0
KTR1 070324Z 14009KT 31/15 A2989 RMK A01 T03130153  RH  038%=      5-min Rain = 0
KTR1 070325Z 14009KT 31/15 A2989 RMK A01 T03140153  RH  038%=      5-min Rain = 0
KTR1 070326Z 14009KT 31/15 A2989 RMK A01 T03140153  RH  038%=      5-min Rain = 0
KTR1 070327Z 14009KT 31/15 A2989 RMK A01 T03140153  RH  038%=      5-min Rain = 0
KTR1 070328Z 14010KT 31/15 A2989 RMK A01 T03140153  RH  038%=      5-min Rain = 0
KTR1 070329Z 14009KT 32/15 A2989 RMK A01 T03150153  RH  038%=      5-min Rain = 0
KTR1 070330Z 15010KT 32/15 A2989 RMK A01 T03150153  RH  038%=      5-min Rain = 0
KTR1 070331Z 15009KT 32/15 A2989 RMK A01 T03150152  RH  038%=      5-min Rain = 0
KTR1 070332Z 15009KT 31/15 A2989 RMK A01 T03140152  RH  038%=      5-min Rain = 0
KTR1 070333Z 15009KT 31/15 A2989 RMK A01 T03140152  RH  038%=      5-min Rain = 0
KTR1 070334Z 15009KT 31/15 A2989 RMK A01 T03140152  RH  038%=      5-min Rain = 0
KTR1 070335Z 15008KT 31/15 A2989 RMK A01 T03140152  RH  038%=      5-min Rain = 0
KTR1 070336Z 15009KT 31/15 A2989 RMK A01 T03140152  RH  038%=      5-min Rain = 0
KTR1 070337Z 15009KT 31/15 A2989 RMK A01 T03130151  RH  038%=      5-min Rain = 0
KTR1 070338Z 15009KT 31/15 A2989 RMK A01 T03130151  RH  038%=      5-min Rain = 0
KTR1 070339Z 15009KT 31/15 A2989 RMK A01 T03120151  RH  038%=      5-min Rain = 0
KTR1 070340Z 15009KT 31/15 A2989 RMK A01 T03120151  RH  038%=      5-min Rain = 0
KTR1 070341Z 15009KT 31/15 A2989 RMK A01 T03120151  RH  038%=      5-min Rain = 0
KTR1 070342Z 15009KT 31/15 A2989 RMK A01 T03120151  RH  038%=      5-min Rain = 0
KTR1 070343Z 15009KT 31/15 A2989 RMK A01 T03120150  RH  038%=      5-min Rain = 0
KTR1 070344Z 15009KT 31/15 A2989 RMK A01 T03120150  RH  038%=      5-min Rain = 0
KTR1 070345Z 15009KT 31/15 A2989 RMK A01 T03110150  RH  038%=      5-min Rain = 0
KTR1 070346Z 16008KT 31/15 A2989 RMK A01 T03110150  RH  038%=      5-min Rain = 0
KTR1 070347Z 16009KT 31/15 A2989 RMK A01 T03100150  RH  038%=      5-min Rain = 0
KTR1 070348Z 16008KT 31/15 A2989 RMK A01 T03090150  RH  038%=      5-min Rain = 0
KTR1 070349Z 16009KT 31/15 A2989 RMK A01 T03090150  RH  038%=      5-min Rain = 0
KTR1 070350Z 16008KT 31/15 A2989 RMK A01 T03080149  RH  038%=      5-min Rain = 0
KTR1 070351Z 16009KT 31/15 A2989 RMK A01 T03080149  RH  038%=      5-min Rain = 0
KTR1 070352Z 16009KT 31/15 A2989 RMK A01 T03070149  RH  038%=      5-min Rain = 0
KTR1 070353Z 16008KT 31/15 A2989 RMK A01 T03080150  RH  038%=      5-min Rain = 0
KTR1 070354Z 16008KT 31/15 A2989 RMK A01 T03070149  RH  038%=      5-min Rain = 0
KTR1 070355Z 16008KT 31/15 A2989 RMK A01 T03060149  RH  038%=      5-min Rain = 0
KTR1 070356Z 16008KT 31/15 A2989 RMK A01 T03060149  RH  039%=      5-min Rain = 0
KTR1 070357Z 16008KT 31/15 A2989 RMK A01 T03060149  RH  039%=      5-min Rain = 0
KTR1 070358Z 16008KT 31/15 A2989 RMK A01 T03050149  RH  039%=      5-min Rain = 0
KTR1 070359Z 16008KT 31/15 A2989 RMK A01 T03050149  RH  039%=      5-min Rain = 0
KTR1 070400Z 16008KT 31/15 A2989 RMK A01 T03050149  RH  039%=      5-min Rain = 0
KTR1 070401Z 16008KT 30/15 A2989 RMK A01 T03040148  RH  039%=      5-min Rain = 0
KTR1 070402Z 16008KT 30/15 A2989 RMK A01 T03040148  RH  039%=      5-min Rain = 0
KTR1 070403Z 16008KT 30/15 A2989 RMK A01 T03040148  RH  039%=      5-min Rain = 0
KTR1 070404Z 16008KT 30/15 A2989 RMK A01 T03040148  RH  039%=      5-min Rain = 0
KTR1 070405Z 16008KT 30/15 A2989 RMK A01 T03030148  RH  039%=      5-min Rain = 0
KTR1 070406Z 16009KT 30/15 A2989 RMK A01 T03030147  RH  039%=      5-min Rain = 0
KTR1 070407Z 16009KT 30/15 A2989 RMK A01 T03030147  RH  039%=      5-min Rain = 0
KTR1 070408Z 16009KT 30/15 A2989 RMK A01 T03030146  RH  038%=      5-min Rain = 0
KTR1 070409Z 16009KT 30/15 A2989 RMK A01 T03040146  RH  038%=      5-min Rain = 0
KTR1 070410Z 16009KT 31/15 A2989 RMK A01 T03050145  RH  038%=      5-min Rain = 0
KTR1 070411Z 17009KT 31/15 A2989 RMK A01 T03050145  RH  038%=      5-min Rain = 0
KTR1 070412Z 17010KT 31/14 A2989 RMK A01 T03060144  RH  037%=      5-min Rain = 0
KTR1 070413Z 17010KT 31/14 A2989 RMK A01 T03070144  RH  037%=      5-min Rain = 0
KTR1 070414Z 16009KT 31/14 A2989 RMK A01 T03090144  RH  037%=      5-min Rain = 0
KTR1 070415Z 17011KT 31/14 A2989 RMK A01 T03090143  RH  036%=      5-min Rain = 0
KTR1 070416Z 17012KT 31/14 A2989 RMK A01 T03100143  RH  036%=      5-min Rain = 0
KTR1 070417Z 17011KT 31/14 A2989 RMK A01 T03120143  RH  036%=      5-min Rain = 0
KTR1 070418Z 17011KT 31/14 A2989 RMK A01 T03130143  RH  036%=      5-min Rain = 0
KTR1 070419Z 16012KT 31/14 A2989 RMK A01 T03130142  RH  035%=      5-min Rain = 0
KTR1 070420Z 17012KT 31/14 A2989 RMK A01 T03140142  RH  035%=      5-min Rain = 0
KTR1 070421Z 17011KT 32/14 A2989 RMK A01 T03150142  RH  035%=      5-min Rain = 0
KTR1 070422Z 16011KT 32/14 A2989 RMK A01 T03150142  RH  035%=      5-min Rain = 0
KTR1 070423Z 17013KT 32/14 A2989 RMK A01 T03150142  RH  035%=      5-min Rain = 0
KTR1 070424Z 17014KT 32/14 A2989 RMK A01 T03160142  RH  035%=      5-min Rain = 0
KTR1 070425Z 17013KT 32/14 A2989 RMK A01 T03180142  RH  034%=      5-min Rain = 0
KTR1 070426Z 17012KT 32/14 A2989 RMK A01 T03180142  RH  034%=      5-min Rain = 0
KTR1 070427Z 17014KT 32/14 A2989 RMK A01 T03180142  RH  034%=      5-min Rain = 0
KTR1 070428Z 17014KT 32/14 A2989 RMK A01 T03180142  RH  034%=      5-min Rain = 0
KTR1 070429Z 17012KT 32/14 A2989 RMK A01 T03190142  RH  034%=      5-min Rain = 0
KTR1 070430Z 17012KT 32/14 A2989 RMK A01 T03190142  RH  034%=      5-min Rain = 0
KTR1 070431Z 17012KT 32/14 A2989 RMK A01 T03180142  RH  034%=      5-min Rain = 0
KTR1 070432Z 16012KT 32/14 A2989 RMK A01 T03170141  RH  034%=      5-min Rain = 0
KTR1 070433Z 17013KT 32/14 A2989 RMK A01 T03180142  RH  034%=      5-min Rain = 0
KTR1 070434Z 17012KT 32/14 A2989 RMK A01 T03180141  RH  034%=      5-min Rain = 0
KTR1 070435Z 17012KT 32/14 A2989 RMK A01 T03180141  RH  034%=      5-min Rain = 0
KTR1 070436Z 17011KT 32/14 A2989 RMK A01 T03180142  RH  034%=      5-min Rain = 0
KTR1 070437Z 17011KT 32/14 A2989 RMK A01 T03180141  RH  034%=      5-min Rain = 0
KTR1 070438Z 17013KT 32/14 A2989 RMK A01 T03170141  RH  034%=      5-min Rain = 0
KTR1 070439Z 17012KT 32/14 A2989 RMK A01 T03170141  RH  034%=      5-min Rain = 0
KTR1 070440Z 17013KT 32/14 A2989 RMK A01 T03170141  RH  034%=      5-min Rain = 0
KTR1 070441Z 17014KT 32/14 A2989 RMK A01 T03180141  RH  034%=      5-min Rain = 0
KTR1 070442Z 17014KT 32/14 A2989 RMK A01 T03180141  RH  034%=      5-min Rain = 0
KTR1 070443Z 16016KT 32/14 A2989 RMK A01 T03190141  RH  034%=      5-min Rain = 0
KTR1 070444Z 17014KT 32/14 A2989 RMK A01 T03200141  RH  034%=      5-min Rain = 0
KTR1 070445Z 17015KT 32/14 A2989 RMK A01 T03200141  RH  034%=      5-min Rain = 0
KTR1 070446Z 17016KT 32/14 A2989 RMK A01 T03200141  RH  034%=      5-min Rain = 0
KTR1 070447Z 17016KT 32/14 A2989 RMK A01 T03200141  RH  034%=      5-min Rain = 0
KTR1 070448Z 17017KT 32/14 A2989 RMK A01 T03210141  RH  034%=      5-min Rain = 0
KTR1 070449Z 16014KT 32/14 A2989 RMK A01 T03210141  RH  034%=      5-min Rain = 0
KTR1 070450Z 17015KT 32/14 A2989 RMK A01 T03200141  RH  034%=      5-min Rain = 0
KTR1 070451Z 17016KT 32/14 A2989 RMK A01 T03200141  RH  034%=      5-min Rain = 0
KTR1 070452Z 17014KT 32/14 A2989 RMK A01 T03200141  RH  034%=      5-min Rain = 0
KTR1 070453Z 17017KT 32/14 A2989 RMK A01 T03200140  RH  034%=      5-min Rain = 0
KTR1 070454Z 17014KT 32/14 A2989 RMK A01 T03200140  RH  034%=      5-min Rain = 0
KTR1 070455Z 17014KT 32/14 A2989 RMK A01 T03200141  RH  034%=      5-min Rain = 0
KTR1 070456Z 17015KT 32/14 A2989 RMK A01 T03190140  RH  034%=      5-min Rain = 0
KTR1 070457Z 17014KT 32/14 A2989 RMK A01 T03190140  RH  034%=      5-min Rain = 0
KTR1 070458Z 17014KT 32/14 A2989 RMK A01 T03190140  RH  034%=      5-min Rain = 0
KTR1 070459Z 17016KT 32/14 A2989 RMK A01 T03190141  RH  034%=      5-min Rain = 0

Page generated in 0.1448 seconds.